KC5DAQ-28 Weather Reports


time (UTC)temp
F
wind
direction
speed
knots
gust
knots
rain 1hr
in
rain 24hr
in
rain mn
in
humidity
%
barometer
mb
20260507030203 71 330 7.8 13.9 0.00 0.00 0.00 80 1006.6
20260507030004 71 330 7.0 13.9 0.00 0.00 0.00 80 1006.6
20260507025902 71 330 7.0 13.9 0.00 0.00 0.00 80 1006.5
20260507025803 71 320 8.7 13.9 0.00 0.00 0.00 80 1006.5
20260507025705 71 314 9.6 13.9 0.00 0.00 0.00 80 1006.5
20260507025603 71 327 7.8 13.9 0.00 0.00 0.00 80 1006.3
20260507025504 71 299 7.0 11.3 0.00 0.00 0.00 80 1006.3
20260507025403 71 337 7.8 11.3 0.00 0.00 0.00 80 1006.3
20260507025306 71 330 7.8 12.2 0.00 0.00 0.00 80 1006.2
20260507025203 71 329 7.8 12.2 0.00 0.00 0.00 80 1006.3
20260507025104 71 323 7.8 12.2 0.00 0.00 0.00 80 1006.2
20260507025005 71 334 7.0 12.2 0.00 0.00 0.00 80 1006.2
20260507024903 71 327 7.8 12.2 0.00 0.00 0.00 80 1006.2
20260507024803 71 289 7.0 12.2 0.00 0.00 0.00 80 1006.3
20260507024703 71 317 6.1 12.2 0.00 0.00 0.00 80 1006.2
20260507024603 71 285 7.0 12.2 0.00 0.00 0.00 80 1006.2
20260507024503 71 344 7.8 12.2 0.00 0.00 0.00 80 1006.2
20260507024402 71 314 7.0 12.2 0.00 0.00 0.00 80 1006.2
20260507024303 71 347 6.1 12.2 0.00 0.00 0.00 80 1006.1
20260507024202 71 295 6.1 12.2 0.00 0.00 0.00 80 1006.2
20260507024104 72 302 6.1 12.2 0.00 0.00 0.00 80 1006.1
20260507024002 71 320 6.1 12.2 0.00 0.00 0.00 80 1006.1
20260507023902 72 321 6.1 12.2 0.00 0.00 0.00 80 1006.2
20260507023802 71 336 7.0 12.2 0.00 0.00 0.00 80 1006.2
20260507023703 72 350 7.8 12.2 0.00 0.00 0.00 80 1006.1
20260507023603 72 331 7.8 12.2 0.00 0.00 0.00 80 1006.2
20260507023502 72 345 7.8 12.2 0.00 0.00 0.00 80 1006.1
20260507023403 72 326 8.7 12.2 0.00 0.00 0.00 80 1006.1
20260507023303 72 298 8.7 12.2 0.00 0.00 0.00 80 1006.0
20260507023204 72 334 7.0 12.2 0.00 0.00 0.00 80 1006.0
20260507023102 72 326 7.0 12.2 0.00 0.00 0.00 80 1006.0
20260507023002 72 319 7.8 12.2 0.00 0.00 0.00 80 1005.9
20260507022903 72 293 7.8 12.2 0.00 0.00 0.00 81 1005.9
20260507022803 72 323 7.8 11.3 0.00 0.00 0.00 81 1005.8
20260507022703 72 324 7.0 11.3 0.00 0.00 0.00 81 1005.8
20260507022603 72 320 6.1 11.3 0.00 0.00 0.00 81 1005.8
20260507022504 72 286 6.1 11.3 0.00 0.00 0.00 81 1005.8
20260507022404 72 319 6.1 11.3 0.00 0.00 0.00 81 1005.8
20260507022306 72 314 6.1 11.3 0.00 0.00 0.00 81 1005.8
20260507022204 72 312 7.0 11.3 0.00 0.00 0.00 81 1005.8
20260507022103 72 338 7.0 11.3 0.00 0.00 0.00 81 1005.8
20260507022003 72 313 6.1 11.3 0.00 0.00 0.00 81 1005.8
20260507021904 72 288 6.1 9.6 0.00 0.00 0.00 81 1005.7
20260507021803 72 338 6.1 9.6 0.00 0.00 0.00 81 1005.7
20260507021704 72 337 5.2 9.6 0.00 0.00 0.00 81 1005.6
20260507021604 72 333 6.1 9.6 0.00 0.00 0.00 81 1005.7
20260507021503 72 324 6.1 9.6 0.00 0.00 0.00 81 1005.6
20260507021404 72 321 6.1 9.6 0.00 0.00 0.00 81 1005.5
20260507021302 72 348 5.2 9.6 0.00 0.00 0.00 81 1005.4
20260507021202 72 0 6.1 9.6 0.00 0.00 0.00 81 1005.4
20260507021103 72 329 6.1 9.6 0.00 0.00 0.00 81 1005.3
20260507021002 72 350 7.0 9.6 0.00 0.00 0.00 81 1005.3
20260507020902 72 326 6.1 9.6 0.00 0.00 0.00 81 1005.4
20260507020803 72 341 5.2 9.6 0.00 0.00 0.00 81 1005.4
20260507020704 72 317 4.3 9.6 0.00 0.00 0.00 81 1005.3
20260507020603 72 312 5.2 9.6 0.00 0.00 0.00 81 1005.4
20260507020504 72 323 6.1 9.6 0.00 0.00 0.00 81 1005.4
20260507020403 72 343 6.1 10.4 0.00 0.00 0.00 81 1005.3
20260507020302 72 333 7.0 10.4 0.00 0.00 0.00 81 1005.3
20260507020204 72 350 6.1 10.4 0.00 0.00 0.00 81 1005.3
20260507020104 72 334 5.2 10.4 0.00 0.00 0.00 81 1005.2
20260507020005 72 347 5.2 10.4 0.00 0.00 0.00 81 1005.1
20260507015902 72 313 6.1 10.4 0.00 0.00 0.00 81 1005.1
20260507015803 72 338 6.1 10.4 0.00 0.00 0.00 80 1005.1
20260507015702 72 331 6.1 10.4 0.00 0.00 0.00 80 1005.1
20260507015603 72 331 7.0 10.4 0.00 0.00 0.00 80 1005.1
20260507015503 72 343 6.1 10.4 0.00 0.00 0.00 80 1005.1
20260507015403 72 350 5.2 10.4 0.00 0.00 0.00 80 1005.2
20260507015306 72 331 6.1 11.3 0.00 0.00 0.00 80 1005.2
20260507015203 72 336 7.0 11.3 0.00 0.00 0.00 80 1005.2
20260507015104 73 303 7.0 11.3 0.00 0.00 0.00 80 1005.2
20260507015004 73 323 6.1 13.0 0.00 0.00 0.00 80 1005.2
20260507014902 73 317 5.2 13.0 0.00 0.00 0.00 80 1005.2
20260507014803 73 336 7.0 13.0 0.00 0.00 0.00 80 1005.1
20260507014705 73 323 7.0 13.0 0.00 0.00 0.00 80 1005.1
20260507014603 73 336 7.0 13.0 0.00 0.00 0.00 80 1005.1
20260507014504 73 0 8.7 13.0 0.00 0.00 0.00 80 1005.1
20260507014402 73 341 8.7 13.0 0.00 0.00 0.00 80 1005.1
20260507014304 73 331 8.7 13.0 0.00 0.00 0.00 80 1005.2
20260507014202 73 347 9.6 13.0 0.00 0.00 0.00 80 1005.1
20260507014102 73 345 8.7 13.0 0.00 0.00 0.00 80 1005.1
20260507014002 73 358 7.8 12.2 0.00 0.00 0.00 80 1005.0
20260507013903 73 313 7.8 12.2 0.00 0.00 0.00 80 1005.1
20260507013804 73 336 7.0 12.2 0.00 0.00 0.00 80 1005.2
20260507013703 73 288 7.0 12.2 0.00 0.00 0.00 80 1005.1
20260507013603 73 309 7.0 12.2 0.00 0.00 0.00 80 1005.1
20260507013505 73 327 6.1 12.2 0.00 0.00 0.00 80 1005.0
20260507013402 73 309 6.1 12.2 0.00 0.00 0.00 80 1005.0
20260507013301 73 307 7.8 12.2 0.00 0.00 0.00 80 1005.0
20260507013201 73 331 8.7 12.2 0.00 0.00 0.00 81 1004.9
20260507013102 73 343 8.7 12.2 0.00 0.00 0.00 81 1004.8
20260507013004 73 355 9.6 12.2 0.00 0.00 0.00 81 1004.8
20260507012904 73 336 9.6 12.2 0.00 0.00 0.00 81 1004.8
20260507012803 73 341 7.8 12.2 0.00 0.00 0.00 81 1004.7
20260507012702 73 0 7.0 10.4 0.00 0.00 0.00 81 1004.7
20260507012603 73 333 5.2 10.4 0.00 0.00 0.00 81 1004.8
20260507012503 73 323 7.0 10.4 0.00 0.00 0.00 81 1004.7
20260507012404 73 324 7.8 11.3 0.00 0.00 0.00 81 1004.8
20260507012306 73 350 7.0 11.3 0.00 0.00 0.00 81 1004.7
20260507012203 73 358 6.1 11.3 0.00 0.00 0.00 81 1004.7
20260507012103 73 343 6.1 11.3 0.00 0.00 0.00 81 1004.7
20260507012002 73 336 6.1 11.3 0.00 0.00 0.00 81 1004.7
20260507011903 73 341 6.1 11.3 0.00 0.00 0.00 81 1004.7
20260507011802 74 358 7.0 11.3 0.00 0.00 0.00 81 1004.7
20260507011702 74 350 7.0 11.3 0.00 0.00 0.00 81 1004.7
20260507011604 74 338 7.8 11.3 0.00 0.00 0.00 81 1004.7
20260507011504 74 314 8.7 11.3 0.00 0.00 0.00 81 1004.6
20260507011403 74 341 7.8 10.4 0.00 0.00 0.00 81 1004.6
20260507011303 74 334 7.0 10.4 0.00 0.00 0.00 81 1004.6
20260507011202 74 310 5.2 8.7 0.00 0.00 0.00 81 1004.6
20260507011103 74 0 4.3 8.7 0.00 0.00 0.00 82 1004.6
20260507011003 74 288 4.3 8.7 0.00 0.00 0.00 81 1004.6
20260507010903 74 312 5.2 8.7 0.00 0.00 0.00 82 1004.5
20260507010802 74 0 5.2 8.7 0.00 0.00 0.00 81 1004.5
20260507010703 74 357 6.1 8.7 0.00 0.00 0.00 81 1004.5
20260507010604 74 317 7.0 8.7 0.00 0.00 0.00 81 1004.5
20260507010503 74 313 6.1 8.7 0.00 0.00 0.00 81 1004.5
20260507010403 74 302 5.2 8.7 0.00 0.00 0.00 81 1004.5
20260507010303 74 309 5.2 8.7 0.00 0.00 0.00 81 1004.5
20260507010203 74 289 5.2 8.7 0.00 0.00 0.00 81 1004.5
20260507010104 74 292 5.2 8.7 0.00 0.00 0.00 81 1004.5
20260507010004 74 292 5.2 8.7 0.00 0.00 0.00 81 1004.5
20260507005903 74 310 4.3 7.8 0.00 0.00 0.00 81 1004.4
20260507005802 74 299 3.5 8.7 0.00 0.00 0.00 81 1004.4
20260507005702 74 305 2.6 11.3 0.00 0.00 0.00 81 1004.4
20260507005602 74 317 3.5 11.3 0.00 0.00 0.00 81 1004.3
20260507005504 74 313 3.5 11.3 0.00 0.00 0.00 81 1004.2
20260507005401 74 343 3.5 11.3 0.00 0.00 0.00 81 1004.2
20260507005305 74 330 3.5 12.2 0.00 0.00 0.00 81 1004.2
20260507005203 74 312 3.5 12.2 0.00 0.00 0.00 81 1004.2
20260507005103 74 333 5.2 12.2 0.00 0.00 0.00 81 1004.1
20260507005003 74 309 6.1 12.2 0.00 0.00 0.00 81 1004.2
20260507004903 75 296 7.0 12.2 0.00 0.00 0.00 81 1004.1
20260507004802 75 293 6.1 12.2 0.00 0.00 0.00 81 1004.0
20260507004703 75 307 7.0 13.0 0.00 0.00 0.00 81 1004.0
20260507004603 75 334 7.8 13.9 0.00 0.00 0.00 81 1003.9
20260507004504 75 341 8.7 13.9 0.00 0.00 0.00 81 1003.9
20260507004403 75 334 7.8 13.9 0.00 0.00 0.00 81 1003.9
20260507004257 75 341 7.0 13.9 0.00 0.00 0.00 81 1003.9
20260507004154 75 345 7.0 13.9 0.00 0.00 0.00 81 1003.9
20260507004048 75 310 7.0 13.9 0.00 0.00 0.00 81 1003.9
20260507003948 75 331 7.8 13.9 0.00 0.00 0.00 81 1003.8
20260507003835 75 324 9.6 13.9 0.00 0.00 0.00 81 1003.8
20260507003733 75 300 9.6 14.8 0.00 0.00 0.00 81 1003.7
20260507003630 75 303 6.1 14.8 0.00 0.00 0.00 81 1003.6
20260507003532 75 350 7.8 14.8 0.00 0.00 0.00 81 1003.6
20260507003432 75 348 7.8 15.6 0.00 0.00 0.00 81 1003.6
20260507003331 75 343 7.0 15.6 0.00 0.00 0.00 80 1003.6
20260507003233 75 343 8.7 15.6 0.00 0.00 0.00 80 1003.6
20260507003133 76 331 11.3 15.6 0.00 0.00 0.00 81 1003.7
20260507003032 76 331 11.3 15.6 0.00 0.00 0.00 81 1003.5
20260507002933 76 331 11.3 15.6 0.00 0.00 0.00 81 1003.6
20260507002832 76 331 11.3 15.6 0.00 0.00 0.00 81 1003.6
20260507002731 76 337 10.4 15.6 0.00 0.00 0.00 81 1003.7
20260507002632 76 338 11.3 15.6 0.00 0.00 0.00 81 1003.6
20260507002532 76 348 11.3 15.6 0.00 0.00 0.00 81 1003.6
20260507002431 76 336 10.4 13.9 0.00 0.00 0.00 81 1003.6
20260507002332 76 323 9.6 13.9 0.00 0.00 0.00 81 1003.6
20260507002233 76 313 7.8 13.9 0.00 0.00 0.00 81 1003.6
20260507002132 76 320 8.7 13.9 0.00 0.00 0.00 81 1003.5
20260507002031 76 323 9.6 13.9 0.00 0.00 0.00 81 1003.5
20260507001931 76 317 10.4 13.9 0.00 0.00 0.00 81 1003.6
20260507001832 76 329 9.6 13.9 0.00 0.00 0.00 81 1003.6
20260507001733 76 331 8.7 13.9 0.00 0.00 0.00 81 1003.5
20260507001632 76 316 9.6 13.9 0.00 0.00 0.00 81 1003.4
20260507001531 76 326 10.4 13.9 0.00 0.00 0.00 81 1003.4
20260507001432 77 327 10.4 13.9 0.00 0.00 0.00 81 1003.3
20260507001331 77 330 10.4 13.9 0.00 0.00 0.00 81 1003.4
20260507001231 77 314 9.6 13.9 0.00 0.00 0.00 81 1003.3
20260507001132 77 341 8.7 13.0 0.00 0.00 0.00 81 1003.2
20260507001032 77 343 8.7 13.0 0.00 0.00 0.00 81 1003.3
20260507000933 77 329 7.8 13.9 0.00 0.00 0.00 81 1003.2
20260507000832 77 296 7.8 13.9 0.00 0.00 0.00 81 1003.2
20260507000731 78 327 7.0 15.6 0.00 0.00 0.00 81 1003.1
20260507000633 78 302 8.7 15.6 0.00 0.00 0.00 81 1003.2
20260507000532 78 299 7.8 15.6 0.00 0.00 0.00 81 1003.2
20260507000432 78 300 7.8 15.6 0.00 0.00 0.00 81 1003.1
20260507000331 78 344 8.7 15.6 0.00 0.00 0.00 80 1003.2
20260507000231 78 336 9.6 15.6 0.00 0.00 0.00 81 1003.1
20260507000132 78 347 10.4 15.6 0.00 0.00 0.00 80 1003.2
20260507000032 79 312 10.4 15.6 0.00 0.00 0.00 80 1003.2
20260506235931 79 303 11.3 15.6 0.00 0.00 0.00 80 1003.2
20260506235832 79 290 9.6 15.6 0.00 0.00 0.00 80 1003.3
20260506235731 79 321 7.8 13.9 0.00 0.00 0.00 80 1003.1
20260506235632 80 333 8.7 13.9 0.00 0.00 0.00 79 1003.2
20260506235531 80 310 10.4 13.9 0.00 0.00 0.00 79 1003.1
20260506235432 80 327 9.6 13.9 0.00 0.00 0.00 79 1003.0
20260506235332 80 0 7.8 13.9 0.00 0.00 0.00 79 1003.1
20260506235233 81 309 8.7 13.9 0.00 0.00 0.00 79 1003.1
20260506235130 81 312 9.6 13.9 0.00 0.00 0.00 79 1003.1
20260506235030 82 298 10.4 13.9 0.00 0.00 0.00 78 1003.0
20260506234931 83 300 9.6 13.0 0.00 0.00 0.00 79 1003.0
20260506234831 83 286 9.6 12.2 0.00 0.00 0.00 79 1002.9
20260506234731 83 300 9.6 12.2 0.00 0.00 0.00 79 1002.9
20260506234631 84 290 7.8 12.2 0.00 0.00 0.00 80 1002.8
20260506234530 84 281 6.1 12.2 0.00 0.00 0.00 80 1002.8
20260506234433 84 285 4.3 6.1 0.00 0.00 0.00 80 1002.7
20260506234333 84 257 3.5 6.1 0.00 0.00 0.00 80 1002.7
20260506234231 84 261 3.5 6.1 0.00 0.00 0.00 80 1002.7
20260506234132 84 259 3.5 6.1 0.00 0.00 0.00 80 1002.7
20260506234031 84 261 3.5 6.1 0.00 0.00 0.00 80 1002.7
20260506233931 84 261 3.5 6.1 0.00 0.00 0.00 80 1002.7
20260506233831 84 261 4.3 6.1 0.00 0.00 0.00 80 1002.7
20260506233732 84 262 3.5 6.1 0.00 0.00 0.00 80 1002.7
20260506233632 84 283 4.3 6.1 0.00 0.00 0.00 80 1002.7
20260506233531 84 293 5.2 6.1 0.00 0.00 0.00 80 1002.7
20260506233432 84 286 4.3 6.1 0.00 0.00 0.00 80 1002.6
20260506233331 84 292 4.3 7.8 0.00 0.00 0.00 80 1002.6
20260506233232 84 289 5.2 7.8 0.00 0.00 0.00 80 1002.6
20260506233132 84 290 5.2 7.8 0.00 0.00 0.00 80 1002.7
20260506233032 84 281 5.2 7.8 0.00 0.00 0.00 80 1002.6
20260506232933 84 293 4.3 7.8 0.00 0.00 0.00 80 1002.6
20260506232831 84 293 3.5 7.8 0.00 0.00 0.00 80 1002.6
20260506232722 84 296 3.5 7.8 0.00 0.00 0.00 80 1002.6
20260506232618 84 290 4.3 7.8 0.00 0.00 0.00 80 1002.5
20260506232514 84 288 5.2 7.8 0.00 0.00 0.00 80 1002.6
20260506232413 84 286 4.3 6.1 0.00 0.00 0.00 80 1002.6
20260506232313 84 302 3.5 6.1 0.00 0.00 0.00 79 1002.6
20260506232212 84 298 4.3 6.1 0.00 0.00 0.00 79 1002.7
20260506232110 85 285 3.5 6.1 0.00 0.00 0.00 79 1002.6
20260506232007 85 286 3.5 6.1 0.00 0.00 0.00 79 1002.7
20260506231905 85 296 4.3 6.1 0.00 0.00 0.00 79 1002.7
20260506231805 85 296 4.3 6.1 0.00 0.00 0.00 79 1002.6
20260506231707 85 286 4.3 6.1 0.00 0.00 0.00 78 1002.7
20260506231605 85 289 3.5 5.2 0.00 0.00 0.00 78 1002.7
20260506231506 85 293 3.5 5.2 0.00 0.00 0.00 78 1002.7
20260506231405 85 295 3.5 5.2 0.00 0.00 0.00 78 1002.6
20260506231305 85 290 3.5 5.2 0.00 0.00 0.00 77 1002.6
20260506231207 85 265 1.7 4.3 0.00 0.00 0.00 77 1002.5
20260506231106 85 265 1.7 4.3 0.00 0.00 0.00 77 1002.5
20260506231006 85 265 2.6 4.3 0.00 0.00 0.00 77 1002.5
20260506230906 85 265 2.6 4.3 0.00 0.00 0.00 77 1002.6
20260506230806 85 265 2.6 4.3 0.00 0.00 0.00 77 1002.6
20260506230707 85 265 3.5 4.3 0.00 0.00 0.00 77 1002.6
20260506230607 85 275 3.5 4.3 0.00 0.00 0.00 77 1002.6
20260506230505 85 276 2.6 4.3 0.00 0.00 0.00 77 1002.6
20260506230407 85 272 2.6 4.3 0.00 0.00 0.00 77 1002.5
20260506230305 85 266 3.5 5.2 0.00 0.00 0.00 77 1002.5
20260506230205 85 266 3.5 5.2 0.00 0.00 0.00 77 1002.5
20260506230108 85 271 2.6 5.2 0.00 0.00 0.00 77 1002.5
20260506230006 85 255 1.7 5.2 0.00 0.00 0.00 77 1002.5
20260506225905 85 255 1.7 5.2 0.00 0.00 0.00 77 1002.4
20260506225805 85 255 1.7 5.2 0.00 0.00 0.00 77 1002.5
20260506225705 85 255 2.6 5.2 0.00 0.00 0.00 77 1002.5
20260506225605 85 255 3.5 5.2 0.00 0.00 0.00 77 1002.5
20260506225505 85 257 3.5 5.2 0.00 0.00 0.00 77 1002.6
20260506225405 85 261 2.6 5.2 0.00 0.00 0.00 77 1002.6
20260506225307 85 276 2.6 5.2 0.00 0.00 0.00 77 1002.5
20260506225205 85 279 1.7 5.2 0.00 0.00 0.00 77 1002.5
20260506225105 85 282 1.7 5.2 0.00 0.00 0.00 77 1002.4
20260506225004 85 282 2.6 5.2 0.00 0.00 0.00 77 1002.5
20260506224905 85 282 3.5 5.2 0.00 0.00 0.00 77 1002.5
20260506224807 85 289 3.5 5.2 0.00 0.00 0.00 76 1002.4
20260506224706 85 276 3.5 5.2 0.00 0.00 0.00 77 1002.4
20260506224604 85 279 3.5 4.3 0.00 0.00 0.00 77 1002.5
20260506224504 85 281 2.6 4.3 0.00 0.00 0.00 77 1002.5
20260506224405 85 248 3.5 4.3 0.00 0.00 0.00 77 1002.5
20260506224304 85 248 3.5 4.3 0.00 0.00 0.00 77 1002.5
20260506224207 86 245 2.6 4.3 0.00 0.00 0.00 77 1002.5
20260506224106 85 251 2.6 4.3 0.00 0.00 0.00 77 1002.5
20260506224007 85 251 3.5 4.3 0.00 0.00 0.00 77 1002.5
20260506223907 85 254 3.5 4.3 0.00 0.00 0.00 76 1002.5
20260506223804 85 255 2.6 4.3 0.00 0.00 0.00 76 1002.5
20260506223705 85 254 2.6 4.3 0.00 0.00 0.00 76 1002.5
20260506223604 85 255 3.5 4.3 0.00 0.00 0.00 76 1002.5
20260506223505 85 255 3.5 4.3 0.00 0.00 0.00 76 1002.5
20260506223404 86 255 3.5 4.3 0.00 0.00 0.00 75 1002.4
20260506223305 86 257 3.5 4.3 0.00 0.00 0.00 76 1002.4
20260506223205 86 252 3.5 4.3 0.00 0.00 0.00 76 1002.4
20260506223106 86 244 2.6 3.5 0.00 0.00 0.00 76 1002.5
20260506223005 86 237 2.6 3.5 0.00 0.00 0.00 76 1002.5
20260506222905 86 235 1.7 3.5 0.00 0.00 0.00 76 1002.4
20260506222804 86 226 0.9 3.5 0.00 0.00 0.00 76 1002.4
20260506222704 86 223 0.9 3.5 0.00 0.00 0.00 76 1002.5
20260506222604 86 223 1.7 3.5 0.00 0.00 0.00 75 1002.5
20260506222507 86 221 1.7 3.5 0.00 0.00 0.00 75 1002.4
20260506222405 86 221 1.7 3.5 0.00 0.00 0.00 75 1002.4
20260506222306 86 217 1.7 3.5 0.00 0.00 0.00 75 1002.4
20260506222204 86 216 1.7 2.6 0.00 0.00 0.00 75 1002.5
20260506222104 86 216 1.7 2.6 0.00 0.00 0.00 75 1002.4
20260506222005 86 214 0.9 2.6 0.00 0.00 0.00 75 1002.5
20260506221905 86 214 0.9 2.6 0.00 0.00 0.00 75 1002.4
20260506221805 86 214 0.9 2.6 0.00 0.00 0.00 75 1002.4
20260506221705 86 219 1.7 2.6 0.00 0.00 0.00 75 1002.5
20260506221604 86 219 1.7 2.6 0.00 0.00 0.00 75 1002.4
20260506221504 86 220 1.7 4.3 0.00 0.00 0.00 75 1002.4
20260506221404 86 220 0.9 4.3 0.00 0.00 0.00 74 1002.4
20260506221304 86 220 0.9 4.3 0.00 0.00 0.00 74 1002.5
20260506221204 86 220 1.7 4.3 0.00 0.00 0.00 75 1002.4
20260506221104 86 220 0.9 4.3 0.00 0.00 0.00 76 1002.4
20260506221004 86 221 0.0 4.3 0.00 0.00 0.00 76 1002.4
20260506220904 86 221 0.9 4.3 0.00 0.00 0.00 76 1002.4
20260506220806 86 221 0.9 4.3 0.00 0.00 0.00 76 1002.4
20260506220703 86 221 1.7 4.3 0.00 0.00 0.00 75 1002.3
20260506220606 86 221 2.6 4.3 0.00 0.00 0.00 75 1002.3
20260506220504 86 199 1.7 3.5 0.00 0.00 0.00 75 1002.3
20260506220403 86 183 1.7 2.6 0.00 0.00 0.00 75 1002.3
20260506220303 86 183 1.7 2.6 0.00 0.00 0.00 75 1002.3
20260506220206 86 183 1.7 2.6 0.00 0.00 0.00 75 1002.3
20260506220104 86 186 1.7 2.6 0.00 0.00 0.00 75 1002.4
20260506220004 86 188 1.7 2.6 0.00 0.00 0.00 75 1002.3
20260506215904 86 193 1.7 2.6 0.00 0.00 0.00 75 1002.3
20260506215803 86 188 0.9 2.6 0.00 0.00 0.00 76 1002.3
20260506215704 86 189 1.7 2.6 0.00 0.00 0.00 76 1002.3
20260506215606 86 189 0.9 2.6 0.00 0.00 0.00 76 1002.3
20260506215505 86 162 0.9 3.5 0.00 0.00 0.00 76 1002.4
20260506215404 86 162 0.9 4.3 0.00 0.00 0.00 76 1002.3
20260506215306 86 188 0.0 4.3 0.00 0.00 0.00 75 1002.3
20260506215204 86 188 0.9 4.3 0.00 0.00 0.00 74 1002.3
20260506215104 86 188 0.9 4.3 0.00 0.00 0.00 74 1002.4
20260506215006 86 189 0.9 4.3 0.00 0.00 0.00 75 1002.3
20260506214904 86 189 0.9 4.3 0.00 0.00 0.00 75 1002.4
20260506214804 87 189 1.7 4.3 0.00 0.00 0.00 74 1002.3
20260506214704 87 189 1.7 4.3 0.00 0.00 0.00 74 1002.3
20260506214603 87 189 1.7 4.3 0.00 0.00 0.00 75 1002.3
20260506214504 87 171 1.7 4.3 0.00 0.00 0.00 76 1002.3
20260506214404 86 176 0.9 3.5 0.00 0.00 0.00 75 1002.4
20260506214303 86 176 1.7 3.5 0.00 0.00 0.00 75 1002.4
20260506214203 86 175 1.7 3.5 0.00 0.00 0.00 75 1002.4
20260506214103 85 176 1.7 3.5 0.00 0.00 0.00 76 1002.4
20260506214004 85 173 1.7 3.5 0.00 0.00 0.00 76 1002.4
20260506213903 85 173 1.7 3.5 0.00 0.00 0.00 76 1002.4
20260506213804 85 182 1.7 4.3 0.00 0.00 0.00 77 1002.4
20260506213703 85 182 1.7 4.3 0.00 0.00 0.00 77 1002.4
20260506213603 85 176 0.9 4.3 0.00 0.00 0.00 77 1002.4
20260506213504 85 178 2.6 4.3 0.00 0.00 0.00 77 1002.4
20260506213404 85 142 1.7 4.3 0.00 0.00 0.00 77 1002.4
20260506213303 85 204 1.7 4.3 0.00 0.00 0.00 77 1002.4
20260506213204 85 210 1.7 4.3 0.00 0.00 0.00 77 1002.4
20260506213103 85 210 1.7 4.3 0.00 0.00 0.00 76 1002.4
20260506213004 85 217 1.7 4.3 0.00 0.00 0.00 76 1002.5
20260506212904 85 219 2.6 4.3 0.00 0.00 0.00 76 1002.5
20260506212804 85 200 2.6 3.5 0.00 0.00 0.00 76 1002.5
20260506212703 85 214 1.7 3.5 0.00 0.00 0.00 77 1002.5
20260506212603 85 196 0.9 3.5 0.00 0.00 0.00 77 1002.6
20260506212505 85 195 1.7 3.5 0.00 0.00 0.00 76 1002.4
20260506212403 85 195 1.7 3.5 0.00 0.00 0.00 76 1002.4
20260506212306 85 193 1.7 3.5 0.00 0.00 0.00 76 1002.5
20260506212204 85 193 1.7 3.5 0.00 0.00 0.00 76 1002.5
20260506212103 85 193 1.7 4.3 0.00 0.00 0.00 76 1002.5
20260506212004 85 195 1.7 4.3 0.00 0.00 0.00 76 1002.5
20260506211903 85 202 0.9 4.3 0.00 0.00 0.00 76 1002.5
20260506211804 85 202 0.9 4.3 0.00 0.00 0.00 76 1002.5
20260506211702 85 202 1.7 4.3 0.00 0.00 0.00 76 1002.6
20260506211605 85 197 0.9 4.3 0.00 0.00 0.00 75 1002.5
20260506211505 85 197 1.7 4.3 0.00 0.00 0.00 75 1002.4
20260506211400 86 188 2.6 4.3 0.00 0.00 0.00 76 1002.5
20260506211252 86 178 2.6 4.3 0.00 0.00 0.00 76 1002.5
20260506211151 86 219 1.7 4.3 0.00 0.00 0.00 76 1002.4
20260506211049 86 178 0.9 4.3 0.00 0.00 0.00 75 1002.4
20260506210943 86 178 0.9 4.3 0.00 0.00 0.00 75 1002.3
20260506210834 86 178 1.7 4.3 0.00 0.00 0.00 75 1002.4
20260506210731 86 178 2.6 4.3 0.00 0.00 0.00 76 1002.4
20260506210631 86 165 1.7 4.3 0.00 0.00 0.00 77 1002.4
20260506210530 86 169 2.6 3.5 0.00 0.00 0.00 77 1002.4
20260506210432 86 165 1.7 3.5 0.00 0.00 0.00 77 1002.4
20260506210332 86 219 1.7 3.5 0.00 0.00 0.00 77 1002.4
20260506210231 86 185 2.6 3.5 0.00 0.00 0.00 77 1002.4
20260506210132 86 193 2.6 3.5 0.00 0.00 0.00 77 1002.4
20260506210031 85 214 1.7 3.5 0.00 0.00 0.00 77 1002.4
20260506205933 85 188 1.7 2.6 0.00 0.00 0.00 76 1002.4
20260506205831 85 186 1.7 2.6 0.00 0.00 0.00 77 1002.5
20260506205723 85 193 1.7 2.6 0.00 0.00 0.00 76 1002.5
20260506205617 85 193 1.7 2.6 0.00 0.00 0.00 76 1002.6
20260506205516 85 192 1.7 2.6 0.00 0.00 0.00 76 1002.6
20260506205416 85 161 1.7 2.6 0.00 0.00 0.00 78 1002.5
20260506205307 85 164 1.7 3.5 0.00 0.00 0.00 78 1002.6
20260506205203 85 159 0.9 3.5 0.00 0.00 0.00 78 1002.6
20260506205104 85 157 0.9 3.5 0.00 0.00 0.00 78 1002.5
20260506205003 85 157 0.9 3.5 0.00 0.00 0.00 78 1002.6
20260506204903 84 157 0.9 3.5 0.00 0.00 0.00 78 1002.7
20260506204803 84 164 1.7 3.5 0.00 0.00 0.00 78 1002.6
20260506204702 84 164 1.7 3.5 0.00 0.00 0.00 78 1002.7
20260506204602 84 164 1.7 4.3 0.00 0.00 0.00 78 1002.8
20260506204503 84 162 1.7 5.2 0.00 0.00 0.00 78 1002.8
20260506204403 84 161 2.6 5.2 0.00 0.00 0.00 78 1002.8
20260506204303 84 185 1.7 5.2 0.00 0.00 0.00 78 1002.8
20260506204202 84 149 0.0 5.2 0.00 0.00 0.00 78 1002.8
20260506204102 84 185 0.9 5.2 0.00 0.00 0.00 78 1002.8
20260506204002 84 185 1.7 5.2 0.00 0.00 0.00 77 1002.9
20260506203901 84 175 1.7 5.2 0.00 0.00 0.00 78 1002.8
20260506203756 84 147 2.6 5.2 0.00 0.00 0.00 77 1002.8
20260506203648 85 134 2.6 5.2 0.00 0.00 0.00 77 1002.8
20260506203547 85 173 2.6 5.2 0.00 0.00 0.00 77 1002.9
20260506203445 85 162 2.6 4.3 0.00 0.00 0.00 77 1002.8
20260506203344 85 155 3.5 4.3 0.00 0.00 0.00 77 1002.8
20260506203245 85 140 2.6 4.3 0.00 0.00 0.00 77 1002.8
20260506203143 85 128 2.6 7.8 0.00 0.00 0.00 77 1002.8
20260506203039 85 171 2.6 7.8 0.00 0.00 0.00 77 1002.8
20260506202936 85 102 2.6 7.8 0.00 0.00 0.00 77 1002.8
20260506202833 85 176 2.6 7.8 0.00 0.00 0.00 77 1002.9
20260506202732 85 161 1.7 7.8 0.00 0.00 0.00 77 1002.9
20260506202625 85 168 1.7 7.8 0.00 0.00 0.00 77 1002.9
20260506202521 85 145 1.7 7.8 0.00 0.00 0.00 77 1002.9
20260506202418 85 148 1.7 7.8 0.00 0.00 0.00 77 1002.9
20260506202318 85 144 2.6 7.8 0.00 0.00 0.00 76 1002.9
20260506202203 85 135 2.6 7.8 0.00 0.00 0.00 76 1002.9
20260506202102 85 154 2.6 4.3 0.00 0.00 0.00 76 1003.0
20260506202004 85 147 1.7 3.5 0.00 0.00 0.00 76 1003.0
20260506201903 85 133 1.7 3.5 0.00 0.00 0.00 76 1003.0
20260506201802 85 159 1.7 3.5 0.00 0.00 0.00 76 1002.9
20260506201703 85 157 2.6 3.5 0.00 0.00 0.00 76 1003.0
20260506201602 85 151 1.7 5.2 0.00 0.00 0.00 76 1003.0
20260506201502 85 151 0.9 5.2 0.00 0.00 0.00 76 1003.0
20260506201404 85 151 0.0 5.2 0.00 0.00 0.00 76 1002.9
20260506201303 85 190 0.0 5.2 0.00 0.00 0.00 76 1003.0
20260506201203 85 190 0.0 5.2 0.00 0.00 0.00 76 1002.9
20260506201103 85 190 0.9 5.2 0.00 0.00 0.00 76 1002.9
20260506201004 85 190 0.9 5.2 0.00 0.00 0.00 76 1003.0
20260506200902 85 190 1.7 5.2 0.00 0.00 0.00 76 1003.0
20260506200803 85 190 2.6 5.2 0.00 0.00 0.00 76 1003.0
20260506200702 85 216 1.7 5.2 0.00 0.00 0.00 76 1003.0
20260506200602 85 188 1.7 4.3 0.00 0.00 0.00 76 1003.0
20260506200505 85 188 1.7 4.3 0.00 0.00 0.00 76 1003.0
20260506200402 85 188 1.7 4.3 0.00 0.00 0.00 75 1003.0
20260506200303 85 189 2.6 4.3 0.00 0.00 0.00 75 1003.0
20260506200203 85 224 2.6 4.3 0.00 0.00 0.00 76 1003.0
20260506200004 85 209 3.5 4.3 0.00 0.00 0.00 76 1003.1
20260506195902 85 195 2.6 4.3 0.00 0.00 0.00 76 1003.1
20260506195803 85 228 1.7 4.3 0.00 0.00 0.00 77 1003.1
20260506195703 85 243 1.7 3.5 0.00 0.00 0.00 77 1003.0
20260506195603 85 245 1.7 3.5 0.00 0.00 0.00 76 1003.0
20260506195503 85 182 1.7 3.5 0.00 0.00 0.00 76 1003.0
20260506195402 85 206 2.6 4.3 0.00 0.00 0.00 76 1003.1
20260506195305 85 212 2.6 4.3 0.00 0.00 0.00 76 1003.1
20260506195202 85 173 0.9 4.3 0.00 0.00 0.00 77 1003.1
20260506195103 85 169 0.9 4.3 0.00 0.00 0.00 77 1003.1
20260506195004 85 168 0.9 4.3 0.00 0.00 0.00 77 1003.2
20260506194902 85 169 1.7 4.3 0.00 0.00 0.00 77 1003.1
20260506194802 85 169 1.7 4.3 0.00 0.00 0.00 77 1003.0
20260506194702 85 172 2.6 4.3 0.00 0.00 0.00 77 1003.1
20260506194602 84 152 2.6 4.3 0.00 0.00 0.00 77 1003.1
20260506194503 84 155 2.6 4.3 0.00 0.00 0.00 77 1003.1
20260506194401 84 159 1.7 3.5 0.00 0.00 0.00 78 1003.1
20260506194303 84 168 1.7 4.3 0.00 0.00 0.00 78 1003.2
20260506194203 84 169 1.7 4.3 0.00 0.00 0.00 78 1003.1
20260506194103 84 157 1.7 4.3 0.00 0.00 0.00 78 1003.2
20260506194002 84 155 1.7 4.3 0.00 0.00 0.00 77 1003.2
20260506193901 84 145 1.7 4.3 0.00 0.00 0.00 77 1003.2
20260506193804 84 145 2.6 4.3 0.00 0.00 0.00 77 1003.2
20260506193702 85 142 2.6 4.3 0.00 0.00 0.00 78 1003.2
20260506193603 85 147 1.7 4.3 0.00 0.00 0.00 78 1003.2
20260506193502 85 133 2.6 4.3 0.00 0.00 0.00 79 1003.2
20260506193402 85 109 1.7 4.3 0.00 0.00 0.00 79 1003.2
20260506193302 84 110 0.9 3.5 0.00 0.00 0.00 79 1003.2
20260506193203 84 110 1.7 3.5 0.00 0.00 0.00 79 1003.2
20260506193102 84 104 1.7 3.5 0.00 0.00 0.00 79 1003.2
20260506193002 84 100 1.7 3.5 0.00 0.00 0.00 79 1003.2
20260506192902 84 128 0.9 3.5 0.00 0.00 0.00 79 1003.2
20260506192801 84 128 0.9 3.5 0.00 0.00 0.00 79 1003.2
20260506192703 83 128 0.9 4.3 0.00 0.00 0.00 79 1003.2
20260506192602 83 127 0.9 4.3 0.00 0.00 0.00 80 1003.3
20260506192503 83 127 1.7 4.3 0.00 0.00 0.00 80 1003.3
20260506192402 83 127 0.9 4.3 0.00 0.00 0.00 81 1003.3
20260506192305 83 127 0.9 4.3 0.00 0.00 0.00 81 1003.3
20260506192202 83 127 1.7 4.3 0.00 0.00 0.00 81 1003.3
20260506192103 83 125 1.7 4.3 0.00 0.00 0.00 81 1003.3
20260506192002 83 125 2.6 4.3 0.00 0.00 0.00 81 1003.4
20260506191902 83 125 3.5 4.3 0.00 0.00 0.00 81 1003.4
20260506191802 83 121 3.5 4.3 0.00 0.00 0.00 81 1003.4
20260506191703 83 133 2.6 4.3 0.00 0.00 0.00 82 1003.4
20260506191602 83 137 1.7 4.3 0.00 0.00 0.00 81 1003.5
20260506191502 83 137 2.6 4.3 0.00 0.00 0.00 81 1003.5
20260506191402 83 140 2.6 4.3 0.00 0.00 0.00 80 1003.5
20260506191302 83 148 2.6 4.3 0.00 0.00 0.00 80 1003.5
20260506191201 83 151 3.5 4.3 0.00 0.00 0.00 80 1003.5
20260506191102 83 161 2.6 4.3 0.00 0.00 0.00 79 1003.5
20260506191003 83 161 2.6 4.3 0.00 0.00 0.00 79 1003.5
20260506190904 83 158 2.6 4.3 0.00 0.00 0.00 79 1003.6
20260506190802 84 157 1.7 4.3 0.00 0.00 0.00 79 1003.6
20260506190704 84 138 2.6 4.3 0.00 0.00 0.00 78 1003.6
20260506190602 84 134 3.5 5.2 0.00 0.00 0.00 77 1003.6
20260506190502 84 180 2.6 5.2 0.00 0.00 0.00 77 1003.6
20260506190404 84 166 2.6 6.1 0.00 0.00 0.00 77 1003.6
20260506190302 85 135 3.5 6.1 0.00 0.00 0.00 77 1003.6
20260506190203 85 124 3.5 6.1 0.00 0.00 0.00 77 1003.6
20260506190002 85 120 3.5 6.1 0.00 0.00 0.00 77 1003.5
20260506185902 85 176 3.5 8.7 0.00 0.00 0.00 76 1003.6
20260506185802 85 155 3.5 8.7 0.00 0.00 0.00 77 1003.6
20260506185704 85 162 3.5 8.7 0.00 0.00 0.00 76 1003.6
20260506185602 85 114 5.2 8.7 0.00 0.00 0.00 76 1003.6
20260506185502 85 114 5.2 8.7 0.00 0.00 0.00 76 1003.5
20260506185404 85 104 3.5 8.7 0.00 0.00 0.00 78 1003.6
20260506185306 85 138 1.7 8.7 0.00 0.00 0.00 78 1003.6
20260506185203 85 128 2.6 8.7 0.00 0.00 0.00 78 1003.7
20260506185103 85 127 5.2 8.7 0.00 0.00 0.00 77 1003.7
20260506185002 85 109 6.1 8.7 0.00 0.00 0.00 77 1003.6
20260506184902 84 103 3.5 7.8 0.00 0.00 0.00 77 1003.6
20260506184802 84 120 2.6 4.3 0.00 0.00 0.00 78 1003.6
20260506184703 84 123 2.6 4.3 0.00 0.00 0.00 78 1003.6
20260506184603 84 123 1.7 4.3 0.00 0.00 0.00 78 1003.7
20260506184502 84 138 0.0 4.3 0.00 0.00 0.00 78 1003.7
20260506184402 84 140 0.9 5.2 0.00 0.00 0.00 79 1003.7
20260506184302 84 135 1.7 5.2 0.00 0.00 0.00 80 1003.7
20260506184203 84 135 1.7 5.2 0.00 0.00 0.00 80 1003.8
20260506184101 84 183 0.9 5.2 0.00 0.00 0.00 79 1003.8
20260506184004 83 185 1.7 5.2 0.00 0.00 0.00 79 1003.8
20260506183902 83 185 1.7 5.2 0.00 0.00 0.00 79 1003.8
20260506183803 83 192 2.6 5.2 0.00 0.00 0.00 79 1003.8
20260506183703 83 196 2.6 5.2 0.00 0.00 0.00 79 1003.8
20260506183604 83 106 3.5 5.2 0.00 0.00 0.00 79 1003.8
20260506183503 83 106 3.5 5.2 0.00 0.00 0.00 80 1003.7
20260506183402 83 110 3.5 4.3 0.00 0.00 0.00 80 1003.8
20260506183303 83 110 2.6 4.3 0.00 0.00 0.00 81 1003.8
20260506183203 83 124 1.7 3.5 0.00 0.00 0.00 80 1003.8
20260506183104 83 123 1.7 3.5 0.00 0.00 0.00 80 1003.8
20260506183002 83 123 1.7 3.5 0.00 0.00 0.00 80 1003.8
20260506182904 83 123 1.7 3.5 0.00 0.00 0.00 81 1003.9
20260506182802 83 123 0.0 3.5 0.00 0.00 0.00 81 1003.9
20260506182703 83 117 0.9 3.5 0.00 0.00 0.00 81 1003.9
20260506182603 83 117 1.7 3.5 0.00 0.00 0.00 81 1003.9
20260506182502 82 117 0.9 3.5 0.00 0.00 0.00 81 1003.9
20260506182402 82 117 0.9 3.5 0.00 0.00 0.00 81 1004.0
20260506182306 82 117 1.7 3.5 0.00 0.00 0.00 81 1004.0
20260506182202 82 117 1.7 3.5 0.00 0.00 0.00 81 1004.0
20260506182103 82 117 2.6 3.5 0.00 0.00 0.00 82 1004.1
20260506182001 82 117 1.7 3.5 0.00 0.00 0.00 82 1004.1
20260506181902 82 118 1.7 3.5 0.00 0.00 0.00 82 1004.1
20260506181802 82 114 1.7 3.5 0.00 0.00 0.00 82 1004.1
20260506181702 82 113 1.7 3.5 0.00 0.00 0.00 82 1004.1
20260506181604 82 110 1.7 3.5 0.00 0.00 0.00 81 1004.1
20260506181503 82 110 2.6 3.5 0.00 0.00 0.00 81 1004.2
20260506181403 82 110 2.6 3.5 0.00 0.00 0.00 81 1004.2
20260506181303 82 109 2.6 3.5 0.00 0.00 0.00 82 1004.2
20260506181202 82 110 0.9 4.3 0.00 0.00 0.00 82 1004.3
20260506181103 82 110 0.9 5.2 0.00 0.00 0.00 82 1004.3
20260506181003 82 110 1.7 5.2 0.00 0.00 0.00 82 1004.3
20260506180901 82 110 0.9 5.2 0.00 0.00 0.00 82 1004.3
20260506180802 82 110 0.9 5.2 0.00 0.00 0.00 82 1004.3
20260506180702 82 110 0.9 5.2 0.00 0.00 0.00 82 1004.4
20260506180603 82 110 0.9 5.2 0.00 0.00 0.00 82 1004.4
20260506180503 82 107 0.9 5.2 0.00 0.00 0.00 82 1004.4
20260506180402 82 107 1.7 5.2 0.00 0.00 0.00 82 1004.3
20260506180302 82 107 1.7 5.2 0.00 0.00 0.00 82 1004.4
20260506180203 82 106 0.9 5.2 0.00 0.00 0.00 82 1004.4
20260506180103 82 165 0.9 3.5 0.00 0.00 0.00 81 1004.5
20260506180003 82 165 1.7 3.5 0.00 0.00 0.00 81 1004.5
20260506175901 82 171 0.9 3.5 0.00 0.00 0.00 81 1004.5
20260506175803 82 172 0.9 2.6 0.00 0.00 0.00 81 1004.6
20260506175702 82 172 0.0 1.7 0.00 0.00 0.00 82 1004.6
20260506175602 82 172 0.9 1.7 0.00 0.00 0.00 82 1004.6
20260506175504 82 172 0.9 1.7 0.00 0.00 0.00 82 1004.7
20260506175402 82 172 1.7 1.7 0.00 0.00 0.00 82 1004.6
20260506175306 82 173 0.9 1.7 0.00 0.00 0.00 82 1004.7
20260506175204 82 176 0.0 1.7 0.00 0.00 0.00 82 1004.7
20260506175101 82 176 0.0 1.7 0.00 0.00 0.00 82 1004.7
20260506175002 82 176 0.0 1.7 0.00 0.00 0.00 82 1004.8
20260506174903 82 176 0.0 1.7 0.00 0.00 0.00 82 1004.7
20260506174802 82 176 0.9 1.7 0.00 0.00 0.00 82 1004.8
20260506174703 82 176 0.9 1.7 0.00 0.00 0.00 82 1004.7
20260506174601 82 175 0.9 1.7 0.00 0.00 0.00 82 1004.7
20260506174503 82 175 0.9 0.9 0.00 0.00 0.00 83 1004.8
20260506174404 0 0.0 0.0 0.00 0.00 0.00 1004.7
20260506174304 0 0.0 0.0 0.00 0.00 0.00 1004.7
20260506174203 82 178 0.9 1.7 0.00 0.00 0.00 83 1004.8
20260506174105 82 178 0.9 1.7 0.00 0.00 0.00 83 1004.9
20260506174003 82 178 0.9 1.7 0.00 0.00 0.00 83 1004.9
20260506173904 82 178 0.9 1.7 0.00 0.00 0.00 83 1004.9
20260506173803 82 178 0.9 3.5 0.00 0.00 0.00 83 1004.9
20260506173704 82 178 0.9 3.5 0.00 0.00 0.00 83 1004.9
20260506173604 82 178 0.9 3.5 0.00 0.00 0.00 83 1004.9
20260506173503 82 178 0.9 3.5 0.00 0.00 0.00 83 1004.9
20260506173403 82 178 0.9 3.5 0.00 0.00 0.00 83 1005.0
20260506173303 82 178 0.9 3.5 0.00 0.00 0.00 83 1005.0
20260506173203 82 178 0.0 3.5 0.00 0.00 0.00 82 1005.0
20260506173104 81 178 0.0 3.5 0.00 0.00 0.00 83 1005.1
20260506173003 81 178 0.9 3.5 0.00 0.00 0.00 83 1005.1
20260506172901 81 178 1.7 3.5 0.00 0.00 0.00 83 1005.2
20260506172803 81 227 1.7 2.6 0.00 0.00 0.00 83 1005.2
20260506172704 81 164 1.7 2.6 0.00 0.00 0.00 83 1005.2
20260506172603 81 157 1.7 2.6 0.00 0.00 0.00 83 1005.2
20260506172502 81 155 1.7 2.6 0.00 0.00 0.00 83 1005.1
20260506172403 81 149 0.0 1.7 0.00 0.00 0.00 84 1005.1
20260506172306 81 149 0.0 2.6 0.00 0.00 0.00 84 1005.2
20260506172202 81 148 0.9 2.6 0.00 0.00 0.00 84 1005.2
20260506172103 81 148 0.0 2.6 0.00 0.00 0.00 84 1005.2
20260506172003 81 148 0.0 3.5 0.00 0.00 0.00 84 1005.2
20260506171901 81 148 0.0 3.5 0.00 0.00 0.00 84 1005.2
20260506171803 81 148 0.0 3.5 0.00 0.00 0.00 84 1005.2
20260506171703 81 148 0.0 3.5 0.00 0.00 0.00 84 1005.2
20260506171604 81 148 0.9 3.5 0.00 0.00 0.00 84 1005.2
20260506171504 81 148 0.9 3.5 0.00 0.00 0.00 83 1005.2
20260506171403 81 148 0.9 3.5 0.00 0.00 0.00 83 1005.2
20260506171303 81 148 1.7 3.5 0.00 0.00 0.00 84 1005.1
20260506171204 81 145 1.7 3.5 0.00 0.00 0.00 84 1005.2
20260506171104 81 148 1.7 3.5 0.00 0.00 0.00 84 1005.2
20260506171003 81 131 1.7 5.2 0.00 0.00 0.00 84 1005.2
20260506170902 80 131 2.6 5.2 0.00 0.00 0.00 84 1005.2
20260506170802 80 131 1.7 5.2 0.00 0.00 0.00 84 1005.2
20260506170702 80 131 0.9 5.2 0.00 0.00 0.00 84 1005.2
20260506170604 80 130 1.7 5.2 0.00 0.00 0.00 85 1005.1
20260506170503 80 125 1.7 6.1 0.00 0.00 0.00 85 1005.2
20260506170401 80 125 1.7 6.1 0.00 0.00 0.00 85 1005.2
20260506170301 80 124 2.6 6.1 0.00 0.00 0.00 84 1005.2
20260506170202 80 127 3.5 6.1 0.00 0.00 0.00 84 1005.2
20260506170104 80 123 3.5 6.1 0.00 0.00 0.00 85 1005.1
20260506170003 80 106 2.6 6.1 0.00 0.00 0.00 84 1005.1
20260506165902 80 110 2.6 6.1 0.00 0.00 0.00 85 1005.1
20260506165803 80 118 2.6 6.1 0.00 0.00 0.00 85 1005.1
20260506165703 80 104 2.6 6.1 0.00 0.00 0.00 85 1005.1
20260506165602 80 103 2.6 6.1 0.00 0.00 0.00 85 1005.1
20260506165504 80 138 3.5 5.2 0.00 0.00 0.00 85 1005.1
20260506165402 80 118 3.5 7.8 0.00 0.00 0.00 85 1005.1
20260506165305 80 123 3.5 7.8 0.00 0.00 0.00 85 1005.1
20260506165203 80 114 4.3 7.8 0.00 0.00 0.00 85 1005.1
20260506165102 80 128 4.3 7.8 0.00 0.00 0.00 85 1005.1
20260506165004 80 107 3.5 7.8 0.00 0.00 0.00 85 1005.2
20260506164904 80 145 3.5 7.8 0.00 0.00 0.00 84 1005.2
20260506164804 80 116 3.5 7.8 0.00 0.00 0.00 84 1005.2
20260506164703 80 120 3.5 7.8 0.00 0.00 0.00 84 1005.1
20260506164601 80 118 4.3 7.8 0.00 0.00 0.00 84 1005.1
20260506164504 80 104 4.3 7.8 0.00 0.00 0.00 84 1005.0
20260506164403 80 109 3.5 4.3 0.00 0.00 0.00 84 1005.1
20260506164303 80 120 3.5 6.1 0.00 0.00 0.00 84 1005.1
20260506164203 80 121 2.6 6.1 0.00 0.00 0.00 84 1005.2
20260506164103 80 125 1.7 6.1 0.00 0.00 0.00 84 1005.2
20260506164003 80 128 1.7 6.1 0.00 0.00 0.00 83 1005.2
20260506163904 80 128 2.6 6.1 0.00 0.00 0.00 83 1005.2
20260506163803 80 127 2.6 6.1 0.00 0.00 0.00 83 1005.2
20260506163704 80 113 3.5 6.1 0.00 0.00 0.00 83 1005.1
20260506163603 80 148 3.5 6.1 0.00 0.00 0.00 83 1005.1
20260506163504 81 121 3.5 6.1 0.00 0.00 0.00 83 1005.1
20260506163403 81 103 3.5 6.1 0.00 0.00 0.00 83 1005.1
20260506163303 81 111 2.6 6.1 0.00 0.00 0.00 83 1005.1
20260506163203 81 128 2.6 6.1 0.00 0.00 0.00 82 1005.0
20260506163104 81 148 2.6 6.1 0.00 0.00 0.00 82 1005.1
20260506163003 81 131 1.7 6.1 0.00 0.00 0.00 82 1005.1
20260506162902 81 128 4.3 6.1 0.00 0.00 0.00 82 1005.0
20260506162804 81 103 5.2 6.1 0.00 0.00 0.00 82 1005.0
20260506162702 81 107 4.3 6.1 0.00 0.00 0.00 82 1005.0
20260506162603 81 107 2.6 6.1 0.00 0.00 0.00 82 1005.1
20260506162503 81 147 1.7 6.1 0.00 0.00 0.00 82 1005.2
20260506162402 81 148 1.7 6.1 0.00 0.00 0.00 82 1005.1
20260506162302 81 140 1.7 6.1 0.00 0.00 0.00 82 1005.1
20260506162201 81 128 1.7 6.1 0.00 0.00 0.00 82 1005.0
20260506162103 81 113 1.7 6.1 0.00 0.00 0.00 82 1005.0
20260506162004 81 113 2.6 6.1 0.00 0.00 0.00 82 1004.9
20260506161904 81 102 4.3 6.1 0.00 0.00 0.00 82 1005.0
20260506161803 81 102 4.3 6.1 0.00 0.00 0.00 82 1005.0
20260506161703 81 109 4.3 6.1 0.00 0.00 0.00 82 1005.0
20260506161603 81 130 3.5 4.3 0.00 0.00 0.00 82 1004.9
20260506161503 81 124 3.5 4.3 0.00 0.00 0.00 82 1004.8
20260506161403 81 117 1.7 5.2 0.00 0.00 0.00 82 1004.8
20260506161304 81 166 1.7 5.2 0.00 0.00 0.00 82 1004.7
20260506161202 81 166 1.7 5.2 0.00 0.00 0.00 82 1004.6
20260506161104 81 151 1.7 5.2 0.00 0.00 0.00 82 1004.6
20260506161002 81 152 2.6 5.2 0.00 0.00 0.00 82 1004.6
20260506160903 81 142 3.5 5.2 0.00 0.00 0.00 82 1004.6
20260506160803 81 123 2.6 5.2 0.00 0.00 0.00 83 1004.6
20260506160704 81 141 2.6 5.2 0.00 0.00 0.00 83 1004.6
20260506160603 81 142 3.5 5.2 0.00 0.00 0.00 83 1004.5
20260506160504 81 140 3.5 5.2 0.00 0.00 0.00 83 1004.5
20260506160403 81 135 3.5 4.3 0.00 0.00 0.00 83 1004.6
20260506160302 81 141 2.6 5.2 0.00 0.00 0.00 82 1004.6
20260506160204 81 120 3.5 5.2 0.00 0.00 0.00 82 1004.6
20260506160004 81 130 3.5 5.2 0.00 0.00 0.00 83 1004.7
20260506155903 81 171 3.5 5.2 0.00 0.00 0.00 83 1004.6
20260506155802 81 128 3.5 5.2 0.00 0.00 0.00 83 1004.7
20260506155704 80 116 2.6 5.2 0.00 0.00 0.00 83 1004.6
20260506155603 80 109 2.6 5.2 0.00 0.00 0.00 83 1004.6
20260506155503 80 109 3.5 5.2 0.00 0.00 0.00 83 1004.6
20260506155403 80 109 2.6 5.2 0.00 0.00 0.00 83 1004.6
20260506155306 80 107 1.7 4.3 0.00 0.00 0.00 84 1004.6
20260506155202 80 145 0.9 4.3 0.00 0.00 0.00 84 1004.6
20260506155102 80 145 0.9 4.3 0.00 0.00 0.00 84 1004.6
20260506155004 80 145 0.0 4.3 0.00 0.00 0.00 84 1004.7
20260506154904 80 125 0.9 4.3 0.00 0.00 0.00 84 1004.7
20260506154803 80 125 1.7 4.3 0.00 0.00 0.00 84 1004.7
20260506154702 80 127 2.6 4.3 0.00 0.00 0.00 84 1004.7
20260506154602 80 128 2.6 4.3 0.00 0.00 0.00 84 1004.7
20260506154505 80 131 2.6 4.3 0.00 0.00 0.00 84 1004.7
20260506154404 80 140 1.7 4.3 0.00 0.00 0.00 84 1004.7
20260506154302 80 145 1.7 4.3 0.00 0.00 0.00 84 1004.6
20260506154203 80 144 2.6 4.3 0.00 0.00 0.00 84 1004.6
20260506154101 80 140 2.6 4.3 0.00 0.00 0.00 84 1004.7
20260506154003 80 125 3.5 4.3 0.00 0.00 0.00 84 1004.6
20260506153903 80 127 1.7 4.3 0.00 0.00 0.00 84 1004.7
20260506153802 80 137 1.7 3.5 0.00 0.00 0.00 84 1004.7
20260506153703 80 148 0.0 3.5 0.00 0.00 0.00 84 1004.7
20260506153602 80 151 0.0 3.5 0.00 0.00 0.00 84 1004.6
20260506153504 80 151 0.9 3.5 0.00 0.00 0.00 84 1004.6
20260506153401 80 149 0.9 3.5 0.00 0.00 0.00 84 1004.6
20260506153304 80 151 0.9 3.5 0.00 0.00 0.00 84 1004.6
20260506153202 80 151 1.7 3.5 0.00 0.00 0.00 84 1004.6
20260506153103 80 149 1.7 3.5 0.00 0.00 0.00 84 1004.6
20260506153004 80 130 1.7 3.5 0.00 0.00 0.00 84 1004.5
20260506152903 80 130 1.7 3.5 0.00 0.00 0.00 84 1004.6
20260506152803 80 130 0.9 5.2 0.00 0.00 0.00 84 1004.5
20260506152703 80 130 1.7 5.2 0.00 0.00 0.00 85 1004.5
20260506152604 80 142 1.7 5.2 0.00 0.00 0.00 85 1004.6
20260506152503 80 144 1.7 5.2 0.00 0.00 0.00 85 1004.6
20260506152403 80 144 0.9 5.2 0.00 0.00 0.00 85 1004.6
20260506152305 80 144 0.9 5.2 0.00 0.00 0.00 85 1004.5
20260506152203 80 144 2.6 5.2 0.00 0.00 0.00 85 1004.5
20260506152103 80 144 2.6 5.2 0.00 0.00 0.00 85 1004.4
20260506152005 80 142 3.5 5.2 0.00 0.00 0.00 85 1004.3
20260506151904 80 116 3.5 5.2 0.00 0.00 0.00 85 1004.4
20260506151803 80 103 3.5 5.2 0.00 0.00 0.00 85 1004.5
20260506151704 80 107 2.6 4.3 0.00 0.00 0.00 85 1004.5
20260506151603 80 131 1.7 4.3 0.00 0.00 0.00 85 1004.5
20260506151504 80 135 2.6 5.2 0.00 0.00 0.00 85 1004.5
20260506151402 80 124 3.5 5.2 0.00 0.00 0.00 85 1004.5
20260506151303 80 128 1.7 5.2 0.00 0.00 0.00 85 1004.4
20260506151202 80 148 1.7 5.2 0.00 0.00 0.00 85 1004.4
20260506151102 80 148 1.7 5.2 0.00 0.00 0.00 85 1004.3
20260506151004 80 158 0.9 5.2 0.00 0.00 0.00 85 1004.2
20260506150904 79 145 1.7 5.2 0.00 0.00 0.00 85 1004.2
20260506150802 80 144 2.6 5.2 0.00 0.00 0.00 85 1004.2
20260506150702 79 157 2.6 5.2 0.00 0.00 0.00 85 1004.3
20260506150602 79 152 3.5 5.2 0.00 0.00 0.00 85 1004.2
20260506150503 79 121 3.5 5.2 0.00 0.00 0.00 85 1004.2
20260506150404 79 110 3.5 5.2 0.00 0.00 0.00 85 1004.2
20260506150305 79 127 2.6 5.2 0.00 0.00 0.00 85 1004.1
20260506150203 80 161 1.7 5.2 0.00 0.00 0.00 85 1004.2
20260506150004 80 151 0.9 5.2 0.00 0.00 0.00 85 1004.2
20260506145904 80 141 0.9 5.2 0.00 0.00 0.00 86 1004.2
20260506145803 80 141 1.7 5.2 0.00 0.00 0.00 86 1004.1
20260506145703 80 128 3.5 5.2 0.00 0.00 0.00 86 1004.1
20260506145602 80 111 2.6 6.1 0.00 0.00 0.00 86 1004.1
20260506145503 79 130 1.7 6.1 0.00 0.00 0.00 86 1004.1
20260506145404 79 161 1.7 7.8 0.00 0.00 0.00 86 1004.0
20260506145305 79 142 0.9 7.8 0.00 0.00 0.00 86 1004.1
20260506145202 79 165 2.6 7.8 0.00 0.00 0.00 86 1004.1
20260506145103 79 151 1.7 7.8 0.00 0.00 0.00 87 1004.1
20260506145002 79 117 0.9 7.8 0.00 0.00 0.00 86 1004.2
20260506144903 79 116 2.6 7.8 0.00 0.00 0.00 86 1004.1
20260506144803 79 113 5.2 7.8 0.00 0.00 0.00 86 1004.1
20260506144703 79 102 5.2 7.8 0.00 0.00 0.00 86 1004.1
20260506144603 79 106 6.1 7.8 0.00 0.00 0.00 86 1004.0
20260506144504 79 107 4.3 7.8 0.00 0.00 0.00 87 1004.0
20260506144404 79 104 3.5 7.8 0.00 0.00 0.00 87 1004.0
20260506144304 79 104 2.6 7.8 0.00 0.00 0.00 87 1003.9
20260506144202 79 100 2.6 7.8 0.00 0.00 0.00 87 1004.0
20260506144103 79 135 3.5 9.6 0.00 0.00 0.00 87 1004.0
20260506144003 79 137 4.3 9.6 0.00 0.00 0.00 87 1003.9
20260506143905 79 92 3.5 9.6 0.00 0.00 0.00 87 1003.9
20260506143803 79 116 3.5 9.6 0.00 0.00 0.00 87 1003.9
20260506143703 79 127 2.6 9.6 0.00 0.00 0.00 87 1003.8
20260506143602 79 127 3.5 9.6 0.00 0.00 0.00 88 1003.8
20260506143506 79 148 4.3 9.6 0.00 0.00 0.00 88 1003.8
20260506143404 79 140 3.5 9.6 0.00 0.00 0.00 87 1003.7
20260506143303 79 134 4.3 9.6 0.00 0.00 0.00 87 1003.7
20260506143202 78 113 6.1 9.6 0.00 0.00 0.00 87 1003.7
20260506143103 78 99 6.1 8.7 0.00 0.00 0.00 87 1003.6
20260506143005 78 106 6.1 8.7 0.00 0.00 0.00 88 1003.6
20260506142902 78 106 6.1 8.7 0.00 0.00 0.00 88 1003.6
20260506142802 78 103 6.1 8.7 0.00 0.00 0.00 88 1003.6
20260506142704 78 104 5.2 7.8 0.00 0.00 0.00 88 1003.5
20260506142603 78 110 5.2 9.6 0.00 0.00 0.00 88 1003.6
20260506142504 78 86 5.2 9.6 0.00 0.00 0.00 88 1003.6
20260506142402 78 116 5.2 9.6 0.00 0.00 0.00 88 1003.5
20260506142302 78 102 5.2 9.6 0.00 0.00 0.00 88 1003.6
20260506142203 78 107 4.3 9.6 0.00 0.00 0.00 88 1003.6
20260506142102 78 106 4.3 9.6 0.00 0.00 0.00 88 1003.6
20260506142004 78 111 5.2 9.6 0.00 0.00 0.00 88 1003.6
20260506141903 78 106 5.2 9.6 0.00 0.00 0.00 88 1003.6
20260506141802 78 111 5.2 9.6 0.00 0.00 0.00 88 1003.7
20260506141704 78 97 6.1 9.6 0.00 0.00 0.00 88 1003.6
20260506141602 78 109 5.2 8.7 0.00 0.00 0.00 88 1003.6
20260506141503 78 117 4.3 8.7 0.00 0.00 0.00 88 1003.7
20260506141403 78 111 4.3 7.8 0.00 0.00 0.00 88 1003.6
20260506141304 78 149 4.3 7.8 0.00 0.00 0.00 88 1003.7
20260506141202 78 106 3.5 6.1 0.00 0.00 0.00 88 1003.7
20260506141102 78 158 3.5 6.1 0.00 0.00 0.00 89 1003.8
20260506141003 78 117 3.5 6.1 0.00 0.00 0.00 89 1003.8
20260506140904 78 140 1.7 6.1 0.00 0.00 0.00 89 1003.8
20260506140803 78 124 0.9 6.1 0.00 0.00 0.00 89 1003.8
20260506140701 78 124 1.7 6.1 0.00 0.00 0.00 89 1003.8
20260506140604 78 123 3.5 6.1 0.00 0.00 0.00 89 1003.8
20260506140502 78 118 3.5 6.1 0.00 0.00 0.00 89 1003.8
20260506140403 78 111 3.5 6.1 0.00 0.00 0.00 89 1003.8
20260506140301 78 109 4.3 6.1 0.00 0.00 0.00 89 1003.8
20260506140154 78 104 3.5 6.1 0.00 0.00 0.00 89 1003.8
20260506140052 78 103 2.6 6.1 0.00 0.00 0.00 89 1003.8
20260506135951 78 103 3.5 6.1 0.00 0.00 0.00 89 1003.8
20260506135851 78 99 3.5 6.1 0.00 0.00 0.00 89 1003.9
20260506135752 78 120 4.3 6.1 0.00 0.00 0.00 90 1003.9
20260506135650 78 113 3.5 6.1 0.00 0.00 0.00 90 1003.9
20260506135551 78 96 1.7 5.2 0.00 0.00 0.00 90 1003.9
20260506135449 78 173 1.7 5.2 0.00 0.00 0.00 90 1003.9
20260506135350 78 118 0.9 5.2 0.00 0.00 0.00 90 1003.9
20260506135251 78 110 0.9 5.2 0.00 0.00 0.00 90 1003.9
20260506135150 77 110 1.7 5.2 0.00 0.00 0.00 90 1003.8
20260506135051 77 110 3.5 5.2 0.00 0.00 0.00 90 1003.8
20260506134951 77 104 2.6 5.2 0.00 0.00 0.00 90 1003.8
20260506134851 77 109 2.6 5.2 0.00 0.00 0.00 90 1003.8
20260506134750 77 107 1.7 5.2 0.00 0.00 0.00 90 1003.7
20260506134650 77 116 1.7 5.2 0.00 0.00 0.00 90 1003.8
20260506134549 77 110 2.6 5.2 0.00 0.00 0.00 90 1003.8
20260506134449 77 152 2.6 5.2 0.00 0.00 0.00 90 1003.7
20260506134349 77 130 2.6 5.2 0.00 0.00 0.00 91 1003.8
20260506134249 77 138 2.6 5.2 0.00 0.00 0.00 91 1003.9
20260506134149 77 133 3.5 5.2 0.00 0.00 0.00 91 1003.8
20260506134050 77 121 3.5 5.2 0.00 0.00 0.00 91 1003.8
20260506133950 77 103 3.5 5.2 0.00 0.00 0.00 91 1003.8
20260506133850 77 109 4.3 5.2 0.00 0.00 0.00 91 1003.8
20260506133751 77 117 3.5 5.2 0.00 0.00 0.00 91 1003.8
20260506133651 77 128 3.5 5.2 0.00 0.00 0.00 91 1003.8
20260506133550 77 142 3.5 5.2 0.00 0.00 0.00 91 1003.8
20260506133450 77 133 3.5 5.2 0.00 0.00 0.00 91 1003.8
20260506133350 77 137 2.6 4.3 0.00 0.00 0.00 91 1003.8
20260506133249 77 135 1.7 4.3 0.00 0.00 0.00 91 1003.9
20260506133149 77 137 1.7 4.3 0.00 0.00 0.00 91 1004.0
20260506133051 77 137 1.7 4.3 0.00 0.00 0.00 91 1003.9
20260506132951 77 138 1.7 4.3 0.00 0.00 0.00 91 1003.9
20260506132849 77 127 1.7 5.2 0.00 0.00 0.00 91 1003.9
20260506132749 76 131 1.7 5.2 0.00 0.00 0.00 91 1003.9
20260506132650 76 131 1.7 5.2 0.00 0.00 0.00 91 1003.8
20260506132549 76 125 3.5 5.2 0.00 0.00 0.00 91 1003.9
20260506132449 76 116 3.5 5.2 0.00 0.00 0.00 91 1003.8
20260506132350 76 116 3.5 5.2 0.00 0.00 0.00 91 1003.9
20260506132250 76 110 1.7 5.2 0.00 0.00 0.00 92 1003.8
20260506132150 76 110 1.7 5.2 0.00 0.00 0.00 92 1003.9
20260506132050 76 109 3.5 5.2 0.00 0.00 0.00 92 1003.9
20260506131950 76 111 3.5 5.2 0.00 0.00 0.00 92 1003.9
20260506131847 76 99 2.6 4.3 0.00 0.00 0.00 92 1004.0
20260506131742 76 120 2.6 4.3 0.00 0.00 0.00 91 1004.1
20260506131640 76 140 2.6 4.3 0.00 0.00 0.00 91 1004.1
20260506131539 76 125 1.7 4.3 0.00 0.00 0.00 91 1004.1
20260506131431 76 161 1.7 4.3 0.00 0.00 0.00 91 1004.1
20260506131331 76 149 1.7 4.3 0.00 0.00 0.00 92 1004.1
20260506131233 76 148 1.7 4.3 0.00 0.00 0.00 92 1004.2
20260506131131 76 123 2.6 4.3 0.00 0.00 0.00 92 1004.1
20260506131032 76 118 1.7 4.3 0.00 0.00 0.00 92 1004.1
20260506130924 76 144 0.9 4.3 0.00 0.00 0.00 92 1004.1
20260506130824 76 144 1.7 4.3 0.00 0.00 0.00 92 1004.1
20260506130722 76 142 2.6 4.3 0.00 0.00 0.00 92 1004.0
20260506130617 76 171 2.6 4.3 0.00 0.00 0.00 92 1004.1
20260506130517 76 145 1.7 4.3 0.00 0.00 0.00 92 1004.1
20260506130412 76 124 1.7 4.3 0.00 0.00 0.00 92 1004.0
20260506130303 76 123 2.6 4.3 0.00 0.00 0.00 92 1004.0
20260506130203 76 123 2.6 4.3 0.00 0.00 0.00 92 1003.9
20260506130003 76 109 3.5 4.3 0.00 0.00 0.00 92 1004.0
20260506125903 76 118 2.6 4.3 0.00 0.00 0.00 92 1004.0
20260506125803 76 118 2.6 4.3 0.00 0.00 0.00 92 1004.0
20260506125703 76 118 2.6 4.3 0.00 0.00 0.00 92 1004.0
20260506125603 76 172 1.7 6.1 0.00 0.00 0.00 92 1004.0
20260506125502 76 120 2.6 6.1 0.00 0.00 0.00 92 1004.0
20260506125402 76 117 2.6 6.1 0.00 0.00 0.00 92 1004.0
20260506125305 76 118 2.6 6.1 0.00 0.00 0.00 92 1004.0
20260506125204 76 118 2.6 6.1 0.00 0.00 0.00 92 1004.0
20260506125104 76 157 2.6 6.1 0.00 0.00 0.00 92 1003.9
20260506125002 76 111 1.7 6.1 0.00 0.00 0.00 92 1003.9
20260506124903 76 104 1.7 6.1 0.00 0.00 0.00 92 1003.9
20260506124804 76 104 3.5 6.1 0.00 0.00 0.00 92 1004.0
20260506124703 76 102 2.6 6.1 0.00 0.00 0.00 92 1004.0
20260506124602 76 100 1.7 6.1 0.00 0.00 0.00 92 1003.9
20260506124502 76 123 1.7 6.1 0.00 0.00 0.00 92 1004.0
20260506124403 76 118 3.5 6.1 0.00 0.00 0.00 92 1004.0
20260506124304 76 118 2.6 6.1 0.00 0.00 0.00 92 1004.0
20260506124203 76 109 2.6 6.1 0.00 0.00 0.00 92 1004.0
20260506124102 76 114 2.6 6.1 0.00 0.00 0.00 92 1003.9
20260506124002 76 114 3.5 6.1 0.00 0.00 0.00 92 1004.0
20260506123903 76 106 3.5 6.1 0.00 0.00 0.00 92 1003.9
20260506123803 76 104 3.5 6.1 0.00 0.00 0.00 92 1003.9
20260506123703 76 103 3.5 6.1 0.00 0.00 0.00 92 1003.8
20260506123604 76 113 2.6 6.1 0.00 0.00 0.00 92 1003.9
20260506123502 76 134 1.7 6.1 0.00 0.00 0.00 92 1003.9
20260506123402 76 124 3.5 6.1 0.00 0.00 0.00 92 1003.9
20260506123303 76 123 3.5 6.1 0.00 0.00 0.00 92 1003.8
20260506123202 76 107 3.5 6.1 0.00 0.00 0.00 92 1003.9
20260506123103 76 118 2.6 5.2 0.00 0.00 0.00 92 1003.9
20260506123004 76 113 1.7 5.2 0.00 0.00 0.00 92 1003.8
20260506122903 76 107 2.6 5.2 0.00 0.00 0.00 92 1003.8
20260506122804 76 140 3.5 5.2 0.00 0.00 0.00 92 1003.7
20260506122705 76 138 2.6 5.2 0.00 0.00 0.00 92 1003.8
20260506122602 76 120 1.7 5.2 0.00 0.00 0.00 92 1003.7
20260506122504 76 123 2.6 5.2 0.00 0.00 0.00 92 1003.7
20260506122404 76 120 3.5 5.2 0.00 0.00 0.00 92 1003.8
20260506122302 76 130 1.7 3.5 0.00 0.00 0.00 92 1003.8
20260506122203 76 137 1.7 2.6 0.00 0.00 0.00 92 1003.8
20260506122102 76 137 1.7 3.5 0.00 0.00 0.00 92 1003.7
20260506122005 76 138 1.7 3.5 0.00 0.00 0.00 92 1003.7
20260506121904 76 138 0.9 3.5 0.00 0.00 0.00 92 1003.8
20260506121802 75 140 0.9 3.5 0.00 0.00 0.00 92 1003.7
20260506121702 75 140 1.7 3.5 0.00 0.00 0.00 92 1003.8
20260506121603 76 140 1.7 3.5 0.00 0.00 0.00 92 1003.7
20260506121503 75 140 1.7 3.5 0.00 0.00 0.00 92 1003.7
20260506121404 76 140 1.7 3.5 0.00 0.00 0.00 92 1003.7
20260506121316 75 140 1.7 3.5 0.00 0.00 0.00 92 1003.7
20260506121203 75 140 0.9 3.5 0.00 0.00 0.00 92 1003.7
20260506121103 75 145 0.0 2.6 0.00 0.00 0.00 92 1003.6
20260506121006 75 145 0.9 2.6 0.00 0.00 0.00 92 1003.6
20260506120904 75 145 0.9 2.6 0.00 0.00 0.00 92 1003.5
20260506120801 75 145 1.7 2.6 0.00 0.00 0.00 92 1003.5
20260506120703 75 145 1.7 2.6 0.00 0.00 0.00 92 1003.6
20260506120604 75 145 0.9 2.6 0.00 0.00 0.00 92 1003.5
20260506120505 75 145 0.0 2.6 0.00 0.00 0.00 92 1003.6
20260506120403 75 159 0.0 2.6 0.00 0.00 0.00 92 1003.5
20260506120304 75 162 0.0 2.6 0.00 0.00 0.00 92 1003.5
20260506120201 75 162 0.0 4.3 0.00 0.00 0.00 92 1003.5
20260506120004 75 162 0.9 4.3 0.00 0.00 0.00 92 1003.5
20260506115902 75 162 1.7 4.3 0.00 0.00 0.00 92 1003.5
20260506115801 75 162 0.9 4.3 0.00 0.00 0.00 92 1003.5
20260506115702 75 166 0.0 4.3 0.00 0.00 0.00 92 1003.4
20260506115603 75 168 0.9 4.3 0.00 0.00 0.00 92 1003.4
20260506115502 75 169 0.9 4.3 0.00 0.00 0.00 92 1003.4
20260506115402 75 172 1.7 4.3 0.00 0.00 0.00 92 1003.4
20260506115306 75 165 2.6 4.3 0.00 0.00 0.00 92 1003.4
20260506115203 75 159 1.7 3.5 0.00 0.00 0.00 92 1003.4
20260506115103 75 175 1.7 4.3 0.00 0.00 0.00 92 1003.4
20260506115003 75 165 1.7 4.3 0.00 0.00 0.00 92 1003.4
20260506114902 75 166 0.9 4.3 0.00 0.00 0.00 92 1003.4
20260506114802 75 168 0.0 4.3 0.00 0.00 0.00 92 1003.4
20260506114702 75 155 0.9 4.3 0.00 0.00 0.00 92 1003.4
20260506114604 75 152 1.7 4.3 0.00 0.00 0.00 92 1003.3
20260506114503 75 152 1.7 4.3 0.00 0.00 0.00 92 1003.4
20260506114403 75 154 2.6 4.3 0.00 0.00 0.00 92 1003.3
20260506114304 75 172 2.6 4.3 0.00 0.00 0.00 92 1003.3
20260506114202 75 106 1.7 4.3 0.00 0.00 0.00 92 1003.3
20260506114104 75 165 1.7 3.5 0.00 0.00 0.00 92 1003.3
20260506114003 75 168 1.7 5.2 0.00 0.00 0.00 92 1003.3
20260506113902 75 149 1.7 5.2 0.00 0.00 0.00 92 1003.4
20260506113803 75 147 1.7 5.2 0.00 0.00 0.00 92 1003.4
20260506113704 75 172 1.7 5.2 0.00 0.00 0.00 92 1003.4
20260506113603 75 173 1.7 5.2 0.00 0.00 0.00 92 1003.3
20260506113503 75 176 1.7 5.2 0.00 0.00 0.00 92 1003.2
20260506113402 75 178 1.7 5.2 0.00 0.00 0.00 92 1003.3
20260506113303 75 124 1.7 5.2 0.00 0.00 0.00 92 1003.2
20260506113204 75 168 2.6 5.2 0.00 0.00 0.00 92 1003.2
20260506113102 75 109 2.6 5.2 0.00 0.00 0.00 92 1003.1
20260506113003 75 151 1.7 5.2 0.00 0.00 0.00 92 1003.1
20260506112902 75 154 1.7 5.2 0.00 0.00 0.00 92 1003.1
20260506112804 75 158 2.6 5.2 0.00 0.00 0.00 92 1003.1
20260506112703 75 149 1.7 5.2 0.00 0.00 0.00 92 1003.1
20260506112603 75 151 1.7 4.3 0.00 0.00 0.00 92 1003.1
20260506112504 75 155 1.7 4.3 0.00 0.00 0.00 92 1003.1
20260506112403 75 157 2.6 4.3 0.00 0.00 0.00 92 1003.2
20260506112305 75 162 2.6 4.3 0.00 0.00 0.00 92 1003.2
20260506112203 75 169 0.9 2.6 0.00 0.00 0.00 92 1003.2
20260506112103 75 169 0.9 2.6 0.00 0.00 0.00 92 1003.2
20260506112004 75 171 0.9 2.6 0.00 0.00 0.00 92 1003.1
20260506111903 75 171 0.9 2.6 0.00 0.00 0.00 92 1003.1
20260506111802 75 172 0.9 3.5 0.00 0.00 0.00 92 1003.2
20260506111703 75 172 0.9 3.5 0.00 0.00 0.00 92 1003.2
20260506111602 75 182 1.7 3.5 0.00 0.00 0.00 92 1003.1
20260506111503 75 207 1.7 3.5 0.00 0.00 0.00 92 1003.2
20260506111405 75 207 1.7 3.5 0.00 0.00 0.00 92 1003.1
20260506111304 75 162 0.9 3.5 0.00 0.00 0.00 92 1003.1
20260506111203 75 162 0.9 3.5 0.00 0.00 0.00 92 1003.1
20260506111102 75 154 0.9 3.5 0.00 0.00 0.00 92 1003.0
20260506111004 75 155 1.7 3.5 0.00 0.00 0.00 92 1002.9
20260506110903 75 154 1.7 3.5 0.00 0.00 0.00 92 1002.9
20260506110802 75 148 1.7 3.5 0.00 0.00 0.00 92 1002.9
20260506110703 75 148 1.7 3.5 0.00 0.00 0.00 92 1002.9
20260506110602 75 135 1.7 3.5 0.00 0.00 0.00 92 1002.8
20260506110504 75 144 1.7 2.6 0.00 0.00 0.00 92 1002.8
20260506110401 75 144 1.7 2.6 0.00 0.00 0.00 92 1002.8
20260506110304 75 137 1.7 2.6 0.00 0.00 0.00 92 1002.7
20260506110204 75 154 0.9 2.6 0.00 0.00 0.00 92 1002.7
20260506110005 75 152 0.9 2.6 0.00 0.00 0.00 92 1002.8
20260506105902 75 152 0.9 2.6 0.00 0.00 0.00 92 1002.8
20260506105804 75 152 0.9 2.6 0.00 0.00 0.00 92 1002.8
20260506105704 75 152 0.9 2.6 0.00 0.00 0.00 92 1002.8
20260506105603 75 152 1.7 3.5 0.00 0.00 0.00 92 1002.7
20260506105505 75 151 1.7 3.5 0.00 0.00 0.00 92 1002.8
20260506105403 75 154 1.7 3.5 0.00 0.00 0.00 92 1002.8
20260506105304 75 155 1.7 3.5 0.00 0.00 0.00 92 1002.8
20260506105204 75 157 1.7 3.5 0.00 0.00 0.00 92 1002.8
20260506105103 75 162 1.7 3.5 0.00 0.00 0.00 92 1002.8
20260506105004 75 147 1.7 3.5 0.00 0.00 0.00 92 1002.7
20260506104903 75 148 1.7 3.5 0.00 0.00 0.00 92 1002.7
20260506104803 75 148 1.7 3.5 0.00 0.00 0.00 92 1002.7
20260506104701 75 148 1.7 3.5 0.00 0.00 0.00 92 1002.6
20260506104601 75 152 1.7 3.5 0.00 0.00 0.00 92 1002.6
20260506104503 75 155 1.7 3.5 0.00 0.00 0.00 92 1002.6
20260506104403 75 164 1.7 4.3 0.00 0.00 0.00 92 1002.6
20260506104302 75 166 1.7 4.3 0.00 0.00 0.00 92 1002.6
20260506104204 75 171 1.7 4.3 0.00 0.00 0.00 92 1002.7
20260506104101 75 169 1.7 4.3 0.00 0.00 0.00 92 1002.6
20260506104003 75 155 1.7 4.3 0.00 0.00 0.00 92 1002.6
20260506103904 75 155 1.7 4.3 0.00 0.00 0.00 92 1002.5
20260506103803 75 152 1.7 4.3 0.00 0.00 0.00 92 1002.5
20260506103704 75 155 1.7 4.3 0.00 0.00 0.00 92 1002.6
20260506103603 75 155 1.7 4.3 0.00 0.00 0.00 91 1002.6
20260506103502 75 165 1.7 4.3 0.00 0.00 0.00 91 1002.7
20260506103403 75 123 1.7 3.5 0.00 0.00 0.00 91 1002.7
20260506103302 75 121 1.7 3.5 0.00 0.00 0.00 91 1002.7
20260506103203 75 157 1.7 3.5 0.00 0.00 0.00 91 1002.7
20260506103104 75 158 0.9 3.5 0.00 0.00 0.00 91 1002.7
20260506103002 75 158 1.7 6.1 0.00 0.00 0.00 91 1002.6
20260506102903 75 158 1.7 6.1 0.00 0.00 0.00 91 1002.6
20260506102803 75 162 0.9 6.1 0.00 0.00 0.00 91 1002.7
20260506102702 75 162 1.7 6.1 0.00 0.00 0.00 91 1002.8
20260506102603 75 164 1.7 6.1 0.00 0.00 0.00 91 1002.8
20260506102504 75 148 1.7 6.1 0.00 0.00 0.00 91 1002.8
20260506102403 75 151 0.9 6.1 0.00 0.00 0.00 91 1002.8
20260506102305 75 151 1.7 6.1 0.00 0.00 0.00 91 1002.9
20260506102203 75 154 2.6 6.1 0.00 0.00 0.00 91 1002.9
20260506102103 75 144 2.6 6.1 0.00 0.00 0.00 91 1002.8
20260506102004 75 138 1.7 3.5 0.00 0.00 0.00 91 1002.8
20260506101903 75 148 1.7 3.5 0.00 0.00 0.00 91 1002.8
20260506101802 75 147 1.7 3.5 0.00 0.00 0.00 91 1002.8
20260506101702 75 137 0.9 3.5 0.00 0.00 0.00 91 1002.7
20260506101603 75 135 0.9 3.5 0.00 0.00 0.00 91 1002.6
20260506101503 75 135 1.7 3.5 0.00 0.00 0.00 91 1002.6
20260506101403 75 137 1.7 5.2 0.00 0.00 0.00 91 1002.6
20260506101303 75 123 1.7 5.2 0.00 0.00 0.00 91 1002.6
20260506101202 75 141 1.7 5.2 0.00 0.00 0.00 91 1002.6
20260506101103 75 158 1.7 5.2 0.00 0.00 0.00 91 1002.7
20260506101005 75 161 2.6 5.2 0.00 0.00 0.00 91 1002.7
20260506100903 75 135 1.7 5.2 0.00 0.00 0.00 91 1002.7
20260506100802 75 154 1.7 5.2 0.00 0.00 0.00 91 1002.8
20260506100704 75 165 1.7 5.2 0.00 0.00 0.00 91 1002.7
20260506100601 75 166 1.7 5.2 0.00 0.00 0.00 91 1002.8
20260506100504 75 154 1.7 5.2 0.00 0.00 0.00 91 1002.7
20260506100404 75 161 0.9 5.2 0.00 0.00 0.00 90 1002.7
20260506100303 75 148 0.9 5.2 0.00 0.00 0.00 90 1002.7
20260506100203 75 148 1.7 5.2 0.00 0.00 0.00 90 1002.6
20260506100104 75 147 2.6 5.2 0.00 0.00 0.00 90 1002.6
20260506100004 75 152 1.7 5.2 0.00 0.00 0.00 90 1002.6
20260506095902 75 138 1.7 5.2 0.00 0.00 0.00 90 1002.6
20260506095802 75 142 2.6 5.2 0.00 0.00 0.00 90 1002.6
20260506095702 75 155 3.5 5.2 0.00 0.00 0.00 90 1002.5
20260506095602 75 157 1.7 5.2 0.00 0.00 0.00 90 1002.5
20260506095503 75 162 1.7 5.2 0.00 0.00 0.00 90 1002.5
20260506095402 75 165 1.7 5.2 0.00 0.00 0.00 90 1002.5
20260506095305 76 158 1.7 5.2 0.00 0.00 0.00 90 1002.6
20260506095203 76 125 2.6 5.2 0.00 0.00 0.00 90 1002.5
20260506095104 76 169 2.6 5.2 0.00 0.00 0.00 90 1002.4
20260506095004 76 141 2.6 5.2 0.00 0.00 0.00 90 1002.5
20260506094903 76 166 3.5 5.2 0.00 0.00 0.00 90 1002.4
20260506094803 76 159 2.6 5.2 0.00 0.00 0.00 90 1002.6
20260506094702 76 138 1.7 5.2 0.00 0.00 0.00 90 1002.5
20260506094603 76 162 1.7 5.2 0.00 0.00 0.00 90 1002.5
20260506094505 76 158 2.6 5.2 0.00 0.00 0.00 90 1002.5
20260506094402 76 195 1.7 5.2 0.00 0.00 0.00 90 1002.5
20260506094304 76 162 1.7 6.1 0.00 0.00 0.00 90 1002.5
20260506094201 76 165 1.7 6.1 0.00 0.00 0.00 90 1002.5
20260506094103 76 166 2.6 7.8 0.00 0.00 0.00 90 1002.4
20260506094005 76 144 1.7 7.8 0.00 0.00 0.00 90 1002.4
20260506093902 76 157 2.6 7.8 0.00 0.00 0.00 90 1002.5
20260506093803 76 158 2.6 7.8 0.00 0.00 0.00 90 1002.4
20260506093702 76 173 2.6 7.8 0.00 0.00 0.00 90 1002.4
20260506093603 76 169 3.5 7.8 0.00 0.00 0.00 90 1002.4
20260506093504 76 166 3.5 7.8 0.00 0.00 0.00 90 1002.4
20260506093403 76 141 3.5 7.8 0.00 0.00 0.00 90 1002.3
20260506093303 76 152 2.6 7.8 0.00 0.00 0.00 90 1002.3
20260506093201 76 127 1.7 7.8 0.00 0.00 0.00 90 1002.2
20260506093103 76 165 1.7 9.6 0.00 0.00 0.00 90 1002.3
20260506093004 76 183 1.7 9.6 0.00 0.00 0.00 90 1002.3
20260506092902 76 154 1.7 9.6 0.00 0.00 0.00 90 1002.3
20260506092804 76 157 2.6 9.6 0.00 0.00 0.00 90 1002.3
20260506092701 76 138 2.6 9.6 0.00 0.00 0.00 90 1002.3
20260506092603 76 130 3.5 9.6 0.00 0.00 0.00 90 1002.2
20260506092502 76 173 3.5 9.6 0.00 0.00 0.00 90 1002.2
20260506092403 76 141 3.5 9.6 0.00 0.00 0.00 90 1002.3
20260506092306 76 159 4.3 9.6 0.00 0.00 0.00 90 1002.2
20260506092203 76 147 3.5 9.6 0.00 0.00 0.00 90 1002.2
20260506092103 76 159 2.6 7.8 0.00 0.00 0.00 90 1002.2
20260506092003 76 144 2.6 7.8 0.00 0.00 0.00 89 1002.3
20260506091904 76 138 3.5 9.6 0.00 0.00 0.00 89 1002.3
20260506091802 76 151 2.6 9.6 0.00 0.00 0.00 89 1002.4
20260506091702 76 159 2.6 9.6 0.00 0.00 0.00 89 1002.3
20260506091603 76 147 3.5 9.6 0.00 0.00 0.00 89 1002.4
20260506091504 76 94 3.5 9.6 0.00 0.00 0.00 89 1002.4
20260506091403 76 124 2.6 9.6 0.00 0.00 0.00 89 1002.3
20260506091302 76 142 3.5 9.6 0.00 0.00 0.00 89 1002.3
20260506091203 76 121 4.3 9.6 0.00 0.00 0.00 89 1002.3
20260506091105 76 186 5.2 9.6 0.00 0.00 0.00 89 1002.3
20260506091003 76 149 3.5 9.6 0.00 0.00 0.00 89 1002.3
20260506090901 76 142 1.7 7.8 0.00 0.00 0.00 89 1002.3
20260506090801 76 148 1.7 7.8 0.00 0.00 0.00 89 1002.3
20260506090703 76 142 3.5 7.8 0.00 0.00 0.00 89 1002.3
20260506090605 76 171 4.3 7.8 0.00 0.00 0.00 89 1002.3
20260506090503 76 195 4.3 7.8 0.00 0.00 0.00 89 1002.3
20260506090402 76 134 3.5 7.8 0.00 0.00 0.00 89 1002.3
20260506090302 76 142 2.6 7.8 0.00 0.00 0.00 89 1002.3
20260506090203 76 147 3.5 7.8 0.00 0.00 0.00 89 1002.3
20260506090004 76 145 4.3 7.8 0.00 0.00 0.00 89 1002.4
20260506085904 76 188 4.3 7.8 0.00 0.00 0.00 89 1002.3
20260506085802 76 154 3.5 6.1 0.00 0.00 0.00 89 1002.3
20260506085704 76 141 2.6 9.6 0.00 0.00 0.00 89 1002.4
20260506085604 76 133 2.6 9.6 0.00 0.00 0.00 89 1002.4
20260506085504 76 166 2.6 9.6 0.00 0.00 0.00 89 1002.4
20260506085403 76 152 3.5 9.6 0.00 0.00 0.00 89 1002.4
20260506085306 76 176 2.6 9.6 0.00 0.00 0.00 89 1002.4
20260506085204 76 133 1.7 9.6 0.00 0.00 0.00 89 1002.6
20260506085103 76 137 2.6 9.6 0.00 0.00 0.00 89 1002.5
20260506085004 76 138 3.5 9.6 0.00 0.00 0.00 89 1002.5
20260506084903 76 137 4.3 9.6 0.00 0.00 0.00 89 1002.5
20260506084804 76 255 4.3 9.6 0.00 0.00 0.00 89 1002.5
20260506084703 76 155 3.5 5.2 0.00 0.00 0.00 89 1002.5
20260506084604 76 188 2.6 5.2 0.00 0.00 0.00 89 1002.6
20260506084505 76 165 2.6 5.2 0.00 0.00 0.00 89 1002.6
20260506084403 76 168 2.6 5.2 0.00 0.00 0.00 89 1002.7
20260506084302 76 159 2.6 6.1 0.00 0.00 0.00 89 1002.7
20260506084203 76 147 1.7 6.1 0.00 0.00 0.00 89 1002.6
20260506084103 76 162 1.7 6.1 0.00 0.00 0.00 89 1002.6
20260506084003 76 171 1.7 6.1 0.00 0.00 0.00 89 1002.5
20260506083903 76 96 1.7 6.1 0.00 0.00 0.00 89 1002.5
20260506083803 76 159 2.6 6.1 0.00 0.00 0.00 89 1002.5
20260506083702 76 158 3.5 6.1 0.00 0.00 0.00 89 1002.5
20260506083603 76 176 3.5 6.1 0.00 0.00 0.00 89 1002.6
20260506083504 76 140 3.5 6.1 0.00 0.00 0.00 89 1002.5
20260506083402 76 154 3.5 6.1 0.00 0.00 0.00 89 1002.5
20260506083305 76 125 2.6 5.2 0.00 0.00 0.00 89 1002.6
20260506083203 76 175 3.5 5.2 0.00 0.00 0.00 89 1002.6
20260506083104 76 159 3.5 5.2 0.00 0.00 0.00 89 1002.5
20260506083004 76 133 2.6 5.2 0.00 0.00 0.00 89 1002.5
20260506082905 77 141 3.5 5.2 0.00 0.00 0.00 89 1002.5
20260506082803 76 157 2.6 5.2 0.00 0.00 0.00 89 1002.5
20260506082702 76 154 2.6 5.2 0.00 0.00 0.00 89 1002.5
20260506082604 76 144 2.6 5.2 0.00 0.00 0.00 89 1002.6
20260506082503 76 144 3.5 5.2 0.00 0.00 0.00 89 1002.6
20260506082402 76 182 3.5 5.2 0.00 0.00 0.00 89 1002.6
20260506082304 76 154 2.6 5.2 0.00 0.00 0.00 89 1002.7
20260506082203 76 149 2.6 5.2 0.00 0.00 0.00 89 1002.6
20260506082104 77 166 1.7 5.2 0.00 0.00 0.00 89 1002.7
20260506082004 77 141 1.7 5.2 0.00 0.00 0.00 89 1002.7
20260506081904 77 166 1.7 5.2 0.00 0.00 0.00 89 1002.7
20260506081804 76 155 2.6 5.2 0.00 0.00 0.00 89 1002.7
20260506081702 76 164 3.5 5.2 0.00 0.00 0.00 89 1002.7
20260506081603 76 142 3.5 5.2 0.00 0.00 0.00 89 1002.7
20260506081502 76 159 1.7 5.2 0.00 0.00 0.00 89 1002.7
20260506081402 76 188 2.6 5.2 0.00 0.00 0.00 89 1002.7
20260506081303 77 164 2.6 5.2 0.00 0.00 0.00 89 1002.8
20260506081203 76 165 2.6 5.2 0.00 0.00 0.00 89 1002.7
20260506081104 76 165 2.6 5.2 0.00 0.00 0.00 89 1002.7
20260506081002 76 142 3.5 5.2 0.00 0.00 0.00 89 1002.8
20260506080904 76 145 3.5 5.2 0.00 0.00 0.00 89 1002.8
20260506080804 76 147 2.6 5.2 0.00 0.00 0.00 89 1002.8
20260506080703 76 168 2.6 5.2 0.00 0.00 0.00 89 1002.8
20260506080603 76 154 2.6 5.2 0.00 0.00 0.00 89 1002.8
20260506080503 76 161 2.6 5.2 0.00 0.00 0.00 89 1002.8
20260506080404 76 157 1.7 5.2 0.00 0.00 0.00 89 1002.7
20260506080302 76 123 1.7 5.2 0.00 0.00 0.00 89 1002.7
20260506080203 76 140 2.6 5.2 0.00 0.00 0.00 89 1002.7
20260506080104 76 135 1.7 5.2 0.00 0.00 0.00 89 1002.7
20260506073504 76 161 2.6 5.2 0.00 0.00 0.00 89 1003.1
20260506073403 76 144 2.6 5.2 0.00 0.00 0.00 89 1003.1
20260506073302 76 165 2.6 5.2 0.00 0.00 0.00 89 1003.2
20260506073204 76 176 1.7 4.3 0.00 0.00 0.00 89 1003.1
20260506073102 76 138 1.7 4.3 0.00 0.00 0.00 89 1003.1
20260506073003 76 158 1.7 4.3 0.00 0.00 0.00 89 1003.2
20260506072903 76 149 0.9 4.3 0.00 0.00 0.00 89 1003.1
20260506072804 76 171 1.7 4.3 0.00 0.00 0.00 89 1003.2
20260506072704 76 179 2.6 4.3 0.00 0.00 0.00 89 1003.2
20260506072603 76 142 1.7 4.3 0.00 0.00 0.00 89 1003.2
20260506072503 77 154 1.7 4.3 0.00 0.00 0.00 89 1003.2
20260506072403 76 117 1.7 4.3 0.00 0.00 0.00 89 1003.3
20260506072305 77 157 1.7 4.3 0.00 0.00 0.00 89 1003.3
20260506072202 77 138 1.7 4.3 0.00 0.00 0.00 89 1003.3
20260506072102 76 133 1.7 4.3 0.00 0.00 0.00 89 1003.2
20260506072004 77 171 0.9 4.3 0.00 0.00 0.00 89 1003.3
20260506071903 77 161 0.9 4.3 0.00 0.00 0.00 89 1003.3
20260506071803 77 161 1.7 7.8 0.00 0.00 0.00 89 1003.3
20260506071703 77 161 1.7 7.8 0.00 0.00 0.00 89 1003.4
20260506071604 77 175 0.9 7.8 0.00 0.00 0.00 89 1003.3
20260506071503 77 188 1.7 7.8 0.00 0.00 0.00 89 1003.4
20260506071403 77 172 2.6 7.8 0.00 0.00 0.00 89 1003.3
20260506071301 77 145 1.7 7.8 0.00 0.00 0.00 89 1003.4
20260506071202 77 161 1.7 7.8 0.00 0.00 0.00 89 1003.3
20260506071104 77 175 2.6 7.8 0.00 0.00 0.00 89 1003.3
20260506071005 77 134 2.6 7.8 0.00 0.00 0.00 89 1003.3
20260506070904 77 138 2.6 7.8 0.00 0.00 0.00 89 1003.3
20260506070805 77 141 1.7 4.3 0.00 0.00 0.00 89 1003.3
20260506070702 77 166 1.7 4.3 0.00 0.00 0.00 89 1003.4
20260506070603 77 155 1.7 4.3 0.00 0.00 0.00 89 1003.3
20260506070503 77 151 1.7 4.3 0.00 0.00 0.00 89 1003.3
20260506070403 77 144 1.7 4.3 0.00 0.00 0.00 89 1003.2
20260506070304 77 144 1.7 4.3 0.00 0.00 0.00 89 1003.3
20260506070203 77 164 1.7 4.3 0.00 0.00 0.00 89 1003.2
20260506070103 77 202 1.7 4.3 0.00 0.00 0.00 89 1003.2
20260506062505 77 144 1.7 5.2 0.00 0.00 0.00 89 1003.4
20260506062402 77 186 1.7 5.2 0.00 0.00 0.00 89 1003.4
20260506062305 77 135 3.5 5.2 0.00 0.00 0.00 89 1003.4
20260506062203 77 197 2.6 5.2 0.00 0.00 0.00 89 1003.4
20260506062103 77 135 1.7 3.5 0.00 0.00 0.00 89 1003.4
20260506062002 77 152 2.6 3.5 0.00 0.00 0.00 89 1003.4
20260506061902 77 173 1.7 3.5 0.00 0.00 0.00 89 1003.5
20260506061803 77 145 1.7 3.5 0.00 0.00 0.00 89 1003.5
20260506061702 77 183 2.6 3.5 0.00 0.00 0.00 89 1003.5
20260506061603 0 0.0 0.0 0.00 0.00 0.00 1003.4
20260506061504 0 0.0 0.0 0.00 0.00 0.00 1003.5
20260506061404 0 0.0 0.0 0.00 0.00 0.00 1003.5
20260506061303 0 140 3.5 3.5 0.00 0.00 0.00 1003.5
20260506061203 77 140 3.5 4.3 0.00 0.00 0.00 89 1003.5
20260506061103 77 140 3.5 4.3 0.00 0.00 0.00 89 1003.5
20260506061004 77 140 3.5 4.3 0.00 0.00 0.00 89 1003.5
20260506060904 77 140 3.5 4.3 0.00 0.00 0.00 89 1003.4
20260506060703 77 140 3.5 4.3 0.00 0.00 0.00 89 1003.5
20260506060602 77 140 3.5 4.3 0.00 0.00 0.00 89 1003.5
20260506060504 77 140 3.5 4.3 0.00 0.00 0.00 89 1003.5
20260506060404 77 140 3.5 4.3 0.00 0.00 0.00 89 1003.5
20260506060304 77 154 3.5 4.3 0.00 0.00 0.00 89 1003.6
20260506060203 77 135 3.5 4.3 0.00 0.00 0.00 89 1003.6
20260506051404 77 157 1.7 4.3 0.00 0.00 0.00 89 1003.4
20260506051303 77 161 1.7 4.3 0.00 0.00 0.00 89 1003.4
20260506051202 77 164 1.7 4.3 0.00 0.00 0.00 89 1003.4
20260506051102 77 134 0.9 5.2 0.00 0.00 0.00 89 1003.4
20260506051003 77 137 1.7 6.1 0.00 0.00 0.00 89 1003.3
20260506050902 77 135 2.6 6.1 0.00 0.00 0.00 89 1003.3
20260506050803 77 135 2.6 6.1 0.00 0.00 0.00 89 1003.4
20260506050702 77 166 2.6 6.1 0.00 0.00 0.00 89 1003.5
20260506050602 77 142 1.7 6.1 0.00 0.00 0.00 89 1003.4
20260506050502 77 147 1.7 6.1 0.00 0.00 0.00 89 1003.4
20260506050405 77 158 2.6 6.1 0.00 0.00 0.00 89 1003.4
20260506050302 77 158 2.6 6.1 0.00 0.00 0.00 88 1003.3
20260506050202 77 111 2.6 6.1 0.00 0.00 0.00 88 1003.4
20260506050104 77 131 3.5 6.1 0.00 0.00 0.00 88 1003.5
20260506045102 77 140 2.6 6.1 0.00 0.00 0.00 88 1003.1
20260506045002 77 172 3.5 6.1 0.00 0.00 0.00 88 1003.1
20260506044902 77 165 3.5 5.2 0.00 0.00 0.00 88 1003.2
20260506044804 77 113 2.6 5.2 0.00 0.00 0.00 88 1003.1
20260506044703 77 135 2.6 5.2 0.00 0.00 0.00 88 1003.2
20260506044603 77 128 3.5 5.2 0.00 0.00 0.00 88 1003.2
20260506044503 77 142 3.5 5.2 0.00 0.00 0.00 87 1003.2
20260506044403 77 128 2.6 5.2 0.00 0.00 0.00 87 1003.2
20260506044303 77 118 2.6 3.5 0.00 0.00 0.00 87 1003.2
20260506044203 77 135 1.7 3.5 0.00 0.00 0.00 87 1003.3
20260506044102 77 159 1.7 4.3 0.00 0.00 0.00 87 1003.3
20260506044002 77 145 1.7 4.3 0.00 0.00 0.00 87 1003.3
20260506043902 77 142 1.7 4.3 0.00 0.00 0.00 87 1003.4
20260506043802 77 127 2.6 4.3 0.00 0.00 0.00 87 1003.3
20260506043703 77 114 2.6 4.3 0.00 0.00 0.00 87 1003.5
20260506043604 77 141 2.6 4.3 0.00 0.00 0.00 87 1003.5
20260506043503 77 142 2.6 5.2 0.00 0.00 0.00 87 1003.5
20260506043404 77 157 2.6 5.2 0.00 0.00 0.00 87 1003.5
20260506043303 77 154 2.6 5.2 0.00 0.00 0.00 87 1003.5
20260506043203 77 145 1.7 5.2 0.00 0.00 0.00 87 1003.5
20260506043101 77 123 1.7 5.2 0.00 0.00 0.00 87 1003.4
20260506043006 77 123 2.6 8.7 0.00 0.00 0.00 87 1003.4
20260506042904 77 124 2.6 8.7 0.00 0.00 0.00 87 1003.4
20260506042803 77 166 3.5 8.7 0.00 0.00 0.00 87 1003.4
20260506042704 77 152 3.5 8.7 0.00 0.00 0.00 87 1003.3
20260506042603 77 125 3.5 8.7 0.00 0.00 0.00 87 1003.4
20260506042502 77 169 2.6 8.7 0.00 0.00 0.00 87 1003.4
20260506042402 77 144 2.6 8.7 0.00 0.00 0.00 87 1003.4
20260506042305 77 179 2.6 8.7 0.00 0.00 0.00 87 1003.3
20260506042202 77 199 3.5 8.7 0.00 0.00 0.00 86 1003.4
20260506042103 77 162 4.3 8.7 0.00 0.00 0.00 86 1003.3
20260506042002 77 137 3.5 8.7 0.00 0.00 0.00 86 1003.3
20260506041905 77 135 2.6 8.7 0.00 0.00 0.00 86 1003.4
20260506041801 77 193 2.6 8.7 0.00 0.00 0.00 86 1003.4
20260506041702 77 154 2.6 8.7 0.00 0.00 0.00 86 1003.3
20260506041603 77 188 3.5 8.7 0.00 0.00 0.00 86 1003.3
20260506041506 77 121 3.5 8.7 0.00 0.00 0.00 86 1003.3
20260506041402 78 110 2.6 8.7 0.00 0.00 0.00 86 1003.3
20260506041302 78 151 1.7 8.7 0.00 0.00 0.00 86 1003.3
20260506041204 78 162 3.5 8.7 0.00 0.00 0.00 86 1003.3
20260506041102 78 128 4.3 8.7 0.00 0.00 0.00 86 1003.3
20260506041002 78 199 1.7 7.8 0.00 0.00 0.00 86 1003.3
20260506040903 78 111 2.6 7.8 0.00 0.00 0.00 86 1003.3
20260506040802 78 110 2.6 7.8 0.00 0.00 0.00 86 1003.2
20260506040704 78 151 2.6 7.8 0.00 0.00 0.00 86 1003.3
20260506040602 78 131 3.5 7.8 0.00 0.00 0.00 86 1003.2
20260506040504 78 155 3.5 7.8 0.00 0.00 0.00 86 1003.2
20260506040402 78 164 3.5 7.8 0.00 0.00 0.00 86 1003.1
20260506040303 78 152 1.7 7.8 0.00 0.00 0.00 85 1003.1
20260506040204 78 157 1.7 7.8 0.00 0.00 0.00 85 1003.1
20260506040005 78 193 3.5 7.8 0.00 0.00 0.00 85 1003.1
20260506035901 78 171 2.6 7.8 0.00 0.00 0.00 85 1003.0
20260506035802 78 166 1.7 7.8 0.00 0.00 0.00 85 1003.0
20260506035701 78 172 2.6 7.8 0.00 0.00 0.00 85 1003.0
20260506035602 78 164 4.3 7.8 0.00 0.00 0.00 85 1003.1
20260506035504 78 127 3.5 7.8 0.00 0.00 0.00 85 1003.1
20260506035404 78 131 2.6 6.1 0.00 0.00 0.00 85 1003.1
20260506035305 78 116 3.5 5.2 0.00 0.00 0.00 85 1003.1
20260506035204 78 188 3.5 5.2 0.00 0.00 0.00 85 1003.0
20260506035102 78 138 3.5 5.2 0.00 0.00 0.00 85 1003.0
20260506035002 78 142 3.5 5.2 0.00 0.00 0.00 85 1003.1
20260506034903 78 175 3.5 5.2 0.00 0.00 0.00 85 1003.1
20260506034802 78 169 3.5 6.1 0.00 0.00 0.00 85 1003.1
20260506034703 78 131 2.6 6.1 0.00 0.00 0.00 85 1003.1
20260506034603 78 213 3.5 6.1 0.00 0.00 0.00 85 1003.1
20260506034504 78 149 3.5 6.1 0.00 0.00 0.00 85 1003.2
20260506034402 78 128 3.5 6.1 0.00 0.00 0.00 85 1003.1
20260506034304 78 124 3.5 6.1 0.00 0.00 0.00 85 1003.2
20260506034202 78 128 3.5 6.1 0.00 0.00 0.00 85 1003.2
20260506034103 78 151 3.5 6.1 0.00 0.00 0.00 85 1003.1
20260506034002 78 135 3.5 6.1 0.00 0.00 0.00 85 1003.2
20260506033903 78 144 3.5 6.1 0.00 0.00 0.00 85 1003.2
20260506033803 78 137 2.6 5.2 0.00 0.00 0.00 85 1003.2
20260506033702 78 180 1.7 5.2 0.00 0.00 0.00 85 1003.1
20260506033603 78 182 1.7 5.2 0.00 0.00 0.00 85 1003.1
20260506033504 78 166 1.7 5.2 0.00 0.00 0.00 85 1003.1
20260506033404 78 135 1.7 5.2 0.00 0.00 0.00 85 1003.1
20260506033302 78 144 1.7 5.2 0.00 0.00 0.00 85 1003.1
20260506033202 78 165 2.6 5.2 0.00 0.00 0.00 85 1003.0
20260506033105 78 158 2.6 5.2 0.00 0.00 0.00 85 1003.0
20260506033003 78 138 2.6 5.2 0.00 0.00 0.00 85 1002.9
20260506032903 78 162 1.7 4.3 0.00 0.00 0.00 85 1002.9
20260506032803 78 161 1.7 5.2 0.00 0.00 0.00 85 1002.8
20260506032703 78 179 1.7 5.2 0.00 0.00 0.00 85 1002.8
20260506032602 78 176 1.7 5.2 0.00 0.00 0.00 85 1002.8
20260506032503 78 164 2.6 5.2 0.00 0.00 0.00 85 1002.8
20260506032404 78 172 2.6 7.8 0.00 0.00 0.00 85 1002.8
20260506032305 78 162 2.6 7.8 0.00 0.00 0.00 85 1002.7
20260506032203 78 135 3.5 7.8 0.00 0.00 0.00 85 1002.7
20260506032103 78 157 2.6 7.8 0.00 0.00 0.00 85 1002.6
20260506032003 78 158 2.6 8.7 0.00 0.00 0.00 85 1002.7
20260506031903 78 171 2.6 8.7 0.00 0.00 0.00 85 1002.6
20260506031803 78 135 2.6 8.7 0.00 0.00 0.00 85 1002.6
20260506031703 78 137 3.5 8.7 0.00 0.00 0.00 85 1002.5
20260506031603 78 190 4.3 8.7 0.00 0.00 0.00 85 1002.5
20260506031503 78 141 4.3 8.7 0.00 0.00 0.00 85 1002.6
20260506031403 78 188 3.5 8.7 0.00 0.00 0.00 85 1002.6
20260506031304 78 149 3.5 8.7 0.00 0.00 0.00 85 1002.5
20260506031202 78 197 4.3 8.7 0.00 0.00 0.00 85 1002.5
20260506031102 78 182 4.3 8.7 0.00 0.00 0.00 85 1002.4
20260506031004 78 137 4.3 8.7 0.00 0.00 0.00 85 1002.4
20260506030904 78 120 4.3 8.7 0.00 0.00 0.00 85 1002.3
20260506030801 78 189 4.3 8.7 0.00 0.00 0.00 85 1002.4
20260506030703 78 165 3.5 8.7 0.00 0.00 0.00 85 1002.3
20260506030603 78 130 2.6 8.7 0.00 0.00 0.00 85 1002.3
20260506030503 78 158 2.6 8.7 0.00 0.00 0.00 85 1002.3
20260506030402 78 147 4.3 8.7 0.00 0.00 0.00 84 1002.3
20260506030302 78 128 5.2 8.7 0.00 0.00 0.00 84 1002.3